DAL40 YSSY-KLAX

Flight info

Callsign DAL40
Flight time 13h 11m
Altitude 35000
Route SY3 DIPSO G595 SOTKI DCT UBLIN A579 TANIL DCT NN B581 BAXIL/N0498F370 B581 WOOBY DCT 02N160W 11N150W/N0490F390 DCT CAMOS DCT 19N140W 26N130W/N0482F410 DCT FICKY GOATZ2
Aircraft A359/H-SDE2E3GHIJ1J3J4J5LM1ORWXY/LB1D1

Departure

Time 2026-05-06 23:41
Airport Sydney Kingsford Smith International Airport (YSSY)

Arrival

Time 2026-05-07 12:52
Airport Los Angeles International Airport (KLAX)
Time Latitude Longitude Altitude Speed Heading
2026-05-06 21:49 -33.94020 151.16539 36 ft 0 kts 345°
2026-05-06 23:23 -33.94039 151.16545 36 ft 4 kts 345°
2026-05-06 23:23 -33.94065 151.16554 36 ft 4 kts 345°
2026-05-06 23:24 -33.94091 151.16562 34 ft 4 kts 345°
2026-05-06 23:24 -33.94113 151.16567 35 ft 4 kts 15°
2026-05-06 23:24 -33.94130 151.16551 36 ft 4 kts 73°
2026-05-06 23:24 -33.94135 151.16527 36 ft 0 kts 74°
2026-05-06 23:28 -33.94130 151.16545 36 ft 5 kts 74°
2026-05-06 23:28 -33.94117 151.16604 36 ft 9 kts 75°
2026-05-06 23:29 -33.94099 151.16682 36 ft 11 kts 75°
2026-05-06 23:29 -33.94078 151.16777 36 ft 13 kts 75°
2026-05-06 23:29 -33.94053 151.16887 36 ft 15 kts 75°
2026-05-06 23:29 -33.94024 151.17004 36 ft 14 kts 72°
2026-05-06 23:30 -33.94006 151.17080 36 ft 3 kts 73°
2026-05-06 23:30 -33.94005 151.17081 36 ft 0 kts 73°
2026-05-06 23:30 -33.94005 151.17083 36 ft 2 kts 73°
2026-05-06 23:30 -33.93994 151.17129 36 ft 9 kts 74°
2026-05-06 23:31 -33.93996 151.17212 35 ft 11 kts 127°
2026-05-06 23:31 -33.94074 151.17250 35 ft 14 kts 166°
2026-05-06 23:31 -33.94180 151.17278 34 ft 17 kts 168°
2026-05-06 23:31 -33.94300 151.17309 36 ft 18 kts 168°
2026-05-06 23:32 -33.94418 151.17340 36 ft 17 kts 167°
2026-05-06 23:32 -33.94533 151.17370 36 ft 17 kts 168°
2026-05-06 23:32 -33.94646 151.17399 36 ft 17 kts 167°
2026-05-06 23:32 -33.94759 151.17429 35 ft 17 kts 168°
2026-05-06 23:33 -33.94872 151.17457 36 ft 17 kts 168°
2026-05-06 23:33 -33.94985 151.17487 36 ft 16 kts 167°
2026-05-06 23:33 -33.95095 151.17515 36 ft 16 kts 167°
2026-05-06 23:33 -33.95205 151.17546 35 ft 16 kts 167°
2026-05-06 23:34 -33.95315 151.17572 35 ft 16 kts 168°
2026-05-06 23:34 -33.95421 151.17600 36 ft 16 kts 168°
2026-05-06 23:34 -33.95526 151.17627 36 ft 15 kts 168°
2026-05-06 23:34 -33.95629 151.17655 36 ft 15 kts 167°
2026-05-06 23:35 -33.95728 151.17681 36 ft 15 kts 167°
2026-05-06 23:35 -33.95794 151.17698 35 ft 15 kts 168°
2026-05-06 23:35 -33.95893 151.17723 36 ft 15 kts 168°
2026-05-06 23:35 -33.95991 151.17748 36 ft 14 kts 167°
2026-05-06 23:36 -33.96087 151.17773 36 ft 14 kts 168°
2026-05-06 23:36 -33.96183 151.17798 36 ft 14 kts 167°
2026-05-06 23:36 -33.96279 151.17823 36 ft 14 kts 168°
2026-05-06 23:36 -33.96360 151.17844 36 ft 12 kts 168°
2026-05-06 23:37 -33.96429 151.17885 36 ft 11 kts 128°
2026-05-06 23:37 -33.96435 151.17929 36 ft 0 kts 82°
2026-05-06 23:39 -33.96434 151.17937 36 ft 3 kts 82°
2026-05-06 23:40 -33.96426 151.17993 36 ft 10 kts 79°
2026-05-06 23:40 -33.96372 151.18047 36 ft 13 kts 358°
2026-05-06 23:40 -33.96138 151.17991 33 ft 63 kts 347°
2026-05-06 23:40 -33.95527 151.17832 35 ft 116 kts 348°
2026-05-06 23:41 -33.94577 151.17586 36 ft 162 kts 348°
2026-05-06 23:41 -33.93393 151.17282 404 ft 171 kts 347°
2026-05-06 23:41 -33.92255 151.16985 1060 ft 168 kts 347°
2026-05-06 23:41 -33.91090 151.16679 1366 ft 174 kts 346°
2026-05-06 23:42 -33.89888 151.16437 1689 ft 179 kts 358°
2026-05-06 23:42 -33.88698 151.16848 2048 ft 180 kts 21°
2026-05-06 23:42 -33.87642 151.17696 2334 ft 188 kts 43°
2026-05-06 23:42 -33.87019 151.19106 2604 ft 196 kts 73°
2026-05-06 23:43 -33.86808 151.20742 2922 ft 200 kts 88°
2026-05-06 23:43 -33.86836 151.22436 3185 ft 208 kts 95°
2026-05-06 23:43 -33.86985 151.24226 3356 ft 222 kts 98°
2026-05-06 23:43 -33.87171 151.26134 3472 ft 238 kts 97°
2026-05-06 23:44 -33.87350 151.28190 3631 ft 254 kts 96°
2026-05-06 23:44 -33.87499 151.30364 3878 ft 267 kts 94°
2026-05-06 23:44 -33.87618 151.32612 4161 ft 278 kts 94°
2026-05-06 23:44 -33.87727 151.34960 4540 ft 284 kts 93°
2026-05-06 23:45 -33.87829 151.37350 4982 ft 288 kts 92°
2026-05-06 23:45 -33.87930 151.39771 5422 ft 292 kts 92°
2026-05-06 23:45 -33.88032 151.42216 5924 ft 294 kts 92°
2026-05-06 23:45 -33.88133 151.44684 6396 ft 296 kts 91°
2026-05-06 23:46 -33.88235 151.47167 6877 ft 298 kts 91°
2026-05-06 23:46 -33.88340 151.49660 7354 ft 299 kts 91°
2026-05-06 23:46 -33.88448 151.52174 7792 ft 303 kts 91°
2026-05-06 23:46 -33.88555 151.54719 8231 ft 306 kts 91°
2026-05-06 23:47 -33.88661 151.57281 8696 ft 307 kts 91°
2026-05-06 23:47 -33.88769 151.59858 9153 ft 309 kts 91°
2026-05-06 23:47 -33.88878 151.62455 9600 ft 312 kts 91°
2026-05-06 23:47 -33.88986 151.65068 10074 ft 314 kts 91°
2026-05-06 23:48 -33.89093 151.67724 10348 ft 323 kts 91°
2026-05-06 23:48 -33.89202 151.70466 10562 ft 334 kts 91°
2026-05-06 23:48 -33.89316 151.73305 10763 ft 345 kts 91°
2026-05-06 23:48 -33.89436 151.76240 10958 ft 357 kts 91°
2026-05-06 23:49 -33.89557 151.79265 11158 ft 367 kts 91°
2026-05-06 23:49 -33.89682 151.82382 11347 ft 378 kts 91°
2026-05-06 23:49 -33.89810 151.85585 11546 ft 388 kts 91°
2026-05-06 23:49 -33.89939 151.88864 11795 ft 395 kts 91°
2026-05-06 23:50 -33.90069 151.92187 12129 ft 400 kts 91°
2026-05-06 23:50 -33.90337 151.98924 12881 ft 406 kts 91°
2026-05-06 23:50 -33.90464 152.02330 13263 ft 408 kts 90°
2026-05-06 23:51 -33.90593 152.05754 13695 ft 410 kts 91°
2026-05-06 23:51 -33.90718 152.09184 14049 ft 412 kts 90°
2026-05-06 23:51 -33.90780 152.12647 14390 ft 415 kts 88°
2026-05-06 23:51 -33.90795 152.16128 14724 ft 418 kts 88°
2026-05-06 23:52 -33.90795 152.19589 15101 ft 419 kts 88°
2026-05-06 23:52 -33.90796 152.23097 15464 ft 421 kts 88°
2026-05-06 23:52 -33.90804 152.26692 15804 ft 424 kts 88°
2026-05-06 23:52 -33.90817 152.30200 16145 ft 427 kts 88°
2026-05-06 23:53 -33.90836 152.33781 16487 ft 429 kts 88°
2026-05-06 23:53 -33.90857 152.37378 16837 ft 431 kts 88°
2026-05-06 23:53 -33.90879 152.40995 17166 ft 433 kts 88°
2026-05-06 23:53 -33.90899 152.44628 17485 ft 435 kts 88°
2026-05-06 23:54 -33.90919 152.48282 17821 ft 437 kts 88°
2026-05-06 23:54 -33.90937 152.51955 18115 ft 440 kts 88°
2026-05-06 23:54 -33.90953 152.55649 18429 ft 442 kts 88°
2026-05-06 23:54 -33.90968 152.59360 18732 ft 445 kts 88°
2026-05-06 23:55 -33.90982 152.63089 19021 ft 447 kts 88°
2026-05-06 23:55 -33.90996 152.66841 19323 ft 449 kts 88°
2026-05-06 23:55 -33.91009 152.70616 19612 ft 452 kts 88°
2026-05-06 23:55 -33.91019 152.74405 19883 ft 454 kts 88°
2026-05-06 23:56 -33.91030 152.78218 20186 ft 456 kts 88°
2026-05-06 23:56 -33.91040 152.82048 20457 ft 459 kts 87°
2026-05-06 23:56 -33.91049 152.85899 20721 ft 461 kts 88°
2026-05-06 23:56 -33.91057 152.89768 21003 ft 463 kts 87°
2026-05-06 23:57 -33.91064 152.93651 21295 ft 465 kts 87°
2026-05-06 23:57 -33.91068 152.97552 21551 ft 467 kts 87°
2026-05-06 23:57 -33.91072 153.01477 21824 ft 470 kts 87°
2026-05-06 23:57 -33.91073 153.05416 22093 ft 472 kts 87°
2026-05-06 23:58 -33.91073 153.09377 22343 ft 475 kts 87°
2026-05-06 23:58 -33.91075 153.13280 22611 ft 476 kts 87°
2026-05-06 23:58 -33.91075 153.17351 22871 ft 478 kts 87°
2026-05-06 23:58 -33.91072 153.21362 23094 ft 481 kts 87°
2026-05-06 23:59 -33.91066 153.25400 23344 ft 483 kts 87°
2026-05-06 23:59 -33.91058 153.29451 23579 ft 485 kts 87°
2026-05-06 23:59 -33.91049 153.33510 23829 ft 487 kts 87°
2026-05-06 23:59 -33.91040 153.37554 24061 ft 489 kts 87°
2026-05-07 00:00 -33.91031 153.41707 24313 ft 491 kts 87°
2026-05-07 00:00 -33.91019 153.45824 24568 ft 493 kts 86°
2026-05-07 00:00 -33.91006 153.49887 24778 ft 495 kts 86°
2026-05-07 00:00 -33.90991 153.54032 25008 ft 497 kts 86°
2026-05-07 00:01 -33.90974 153.58198 25250 ft 498 kts 86°
2026-05-07 00:01 -33.90957 153.62376 25476 ft 500 kts 86°
2026-05-07 00:01 -33.90938 153.66575 25687 ft 502 kts 86°
2026-05-07 00:01 -33.90918 153.70788 25919 ft 505 kts 86°
2026-05-07 00:02 -33.90895 153.75019 26140 ft 506 kts 86°
2026-05-07 00:02 -33.90869 153.79267 26357 ft 509 kts 86°
2026-05-07 00:02 -33.90844 153.83529 26573 ft 511 kts 86°
2026-05-07 00:02 -33.90819 153.87813 26798 ft 513 kts 86°
2026-05-07 00:03 -33.90792 153.92109 27013 ft 515 kts 86°
2026-05-07 00:03 -33.90763 153.96428 27224 ft 517 kts 86°
2026-05-07 00:03 -33.90732 154.00755 27440 ft 518 kts 86°
2026-05-07 00:03 -33.90700 154.05098 27657 ft 520 kts 86°
2026-05-07 00:04 -33.90667 154.09459 27844 ft 522 kts 86°
2026-05-07 00:04 -33.90631 154.13842 28046 ft 524 kts 86°
2026-05-07 00:04 -33.90592 154.18234 28230 ft 526 kts 85°
2026-05-07 00:04 -33.90551 154.22640 28442 ft 527 kts 85°
2026-05-07 00:05 -33.90507 154.27066 28575 ft 530 kts 85°
2026-05-07 00:05 -33.90463 154.31532 28475 ft 539 kts 84°
2026-05-07 00:05 -33.90418 154.36064 28589 ft 541 kts 84°
2026-05-07 00:05 -33.90372 154.40598 28811 ft 542 kts 84°
2026-05-07 00:06 -33.90326 154.45138 29003 ft 543 kts 84°
2026-05-07 00:06 -33.90276 154.49684 29202 ft 544 kts 84°
2026-05-07 00:06 -33.90167 154.54236 29333 ft 544 kts 81°
2026-05-07 00:06 -33.89847 154.58766 29525 ft 542 kts 78°
2026-05-07 00:07 -33.89418 154.63277 29686 ft 543 kts 77°
2026-05-07 00:07 -33.88958 154.67794 29866 ft 544 kts 77°
2026-05-07 00:07 -33.88507 154.72315 29981 ft 546 kts 77°
2026-05-07 00:07 -33.88077 154.76860 30145 ft 547 kts 78°
2026-05-07 00:08 -33.87666 154.81420 30310 ft 548 kts 78°
2026-05-07 00:08 -33.87270 154.85983 30479 ft 549 kts 78°
2026-05-07 00:08 -33.86879 154.90562 30596 ft 551 kts 78°
2026-05-07 00:08 -33.86489 154.95154 30741 ft 552 kts 78°
2026-05-07 00:09 -33.86096 154.99756 30869 ft 553 kts 79°
2026-05-07 00:09 -33.85700 155.04363 30992 ft 555 kts 79°
2026-05-07 00:09 -33.85306 155.08915 31179 ft 554 kts 79°
2026-05-07 00:09 -33.84710 155.13461 31389 ft 546 kts 70°
2026-05-07 00:10 -33.83593 155.17780 31551 ft 536 kts 60°
2026-05-07 00:10 -33.81935 155.21746 31638 ft 526 kts 50°
2026-05-07 00:10 -33.79799 155.25335 31809 ft 518 kts 44°
2026-05-07 00:10 -33.77587 155.28660 31976 ft 515 kts 42°
2026-05-07 00:11 -33.75264 155.32004 32139 ft 514 kts 41°
2026-05-07 00:11 -33.72983 155.35231 32298 ft 513 kts 41°
2026-05-07 00:11 -33.70672 155.38490 32448 ft 513 kts 41°
2026-05-07 00:11 -33.68363 155.41757 32576 ft 514 kts 41°
2026-05-07 00:12 -33.63752 155.48321 32827 ft 514 kts 42°
2026-05-07 00:12 -33.61455 155.51606 32976 ft 513 kts 42°
2026-05-07 00:12 -33.59156 155.54897 33025 ft 516 kts 42°
2026-05-07 00:13 -33.54518 155.61520 33025 ft 520 kts 42°
2026-05-07 00:13 -33.49866 155.68157 33029 ft 520 kts 42°
2026-05-07 00:14 -33.45217 155.74778 33024 ft 520 kts 42°
2026-05-07 00:14 -33.40559 155.81394 33026 ft 520 kts 42°
2026-05-07 00:15 -33.35893 155.88011 33023 ft 520 kts 42°
2026-05-07 00:15 -33.31221 155.94625 33026 ft 520 kts 42°
2026-05-07 00:16 -33.26545 156.01231 33028 ft 520 kts 42°
2026-05-07 00:16 -33.21870 156.07820 33029 ft 520 kts 42°
2026-05-07 00:17 -33.17195 156.14413 33105 ft 519 kts 42°
2026-05-07 00:17 -33.14869 156.17685 33398 ft 515 kts 42°
2026-05-07 00:17 -33.12554 156.20938 33628 ft 514 kts 42°
2026-05-07 00:18 -33.10238 156.24187 33744 ft 514 kts 42°
2026-05-07 00:18 -33.07920 156.27432 33883 ft 514 kts 42°
2026-05-07 00:18 -33.03285 156.33918 34057 ft 514 kts 42°
2026-05-07 00:19 -33.00964 156.37165 34178 ft 514 kts 42°
2026-05-07 00:19 -32.98647 156.40402 34300 ft 514 kts 42°
2026-05-07 00:19 -32.96327 156.43639 34402 ft 514 kts 41°
2026-05-07 00:19 -32.94004 156.46876 34413 ft 516 kts 41°
2026-05-07 00:20 -32.89342 156.53366 34635 ft 515 kts 41°
2026-05-07 00:20 -32.87046 156.56561 34738 ft 515 kts 41°
2026-05-07 00:20 -32.84716 156.59799 34829 ft 515 kts 41°
2026-05-07 00:21 -32.80046 156.66285 34897 ft 517 kts 41°
2026-05-07 00:21 -32.77704 156.69531 35009 ft 517 kts 41°
2026-05-07 00:21 -32.75358 156.72779 35024 ft 519 kts 41°
2026-05-07 00:22 -32.70639 156.79298 35026 ft 522 kts 41°
2026-05-07 00:22 -32.65888 156.85853 35026 ft 525 kts 41°
2026-05-07 00:23 -32.61129 156.92415 35026 ft 525 kts 41°
2026-05-07 00:23 -32.57137 156.97911 35025 ft 524 kts 41°
2026-05-07 00:24 -32.52373 157.04458 35026 ft 524 kts 41°
2026-05-07 00:24 -32.47636 157.10954 35026 ft 525 kts 41°
2026-05-07 00:25 -32.42857 157.17489 35021 ft 526 kts 41°
2026-05-07 00:25 -32.38063 157.24036 35019 ft 526 kts 41°
2026-05-07 00:26 -32.33272 157.30576 35014 ft 526 kts 41°
2026-05-07 00:26 -32.28474 157.37116 35016 ft 527 kts 41°
2026-05-07 00:27 -32.23657 157.43659 35019 ft 528 kts 41°
2026-05-07 00:27 -32.18834 157.50200 35017 ft 528 kts 41°
2026-05-07 00:28 -32.14005 157.56738 35013 ft 528 kts 40°
2026-05-07 00:28 -32.09172 157.63274 35018 ft 529 kts 40°
2026-05-07 00:29 -32.04328 157.69808 35013 ft 530 kts 40°
2026-05-07 00:30 -31.94612 157.82886 35014 ft 531 kts 40°
2026-05-07 00:30 -31.89744 157.89421 35018 ft 531 kts 40°
2026-05-07 00:31 -31.84879 157.95946 35015 ft 530 kts 40°
2026-05-07 00:31 -31.80007 158.02465 35017 ft 531 kts 40°
2026-05-07 00:32 -31.75129 158.08980 35016 ft 531 kts 40°
2026-05-07 00:32 -31.70246 158.15486 35017 ft 531 kts 40°
2026-05-07 00:33 -31.65361 158.21983 35018 ft 531 kts 40°
2026-05-07 00:33 -31.60476 158.28470 35021 ft 531 kts 40°
2026-05-07 00:34 -31.55576 158.34973 35018 ft 531 kts 40°
2026-05-07 00:34 -31.50671 158.41466 35017 ft 532 kts 40°
2026-05-07 00:35 -31.45753 158.47966 35017 ft 534 kts 39°
2026-05-07 00:35 -31.40826 158.54470 35017 ft 534 kts 39°
2026-05-07 00:36 -31.35922 158.60931 35017 ft 536 kts 39°
2026-05-07 00:36 -31.30964 158.67449 35022 ft 536 kts 39°
2026-05-07 00:37 -31.26001 158.73964 35017 ft 537 kts 39°
2026-05-07 00:37 -31.21032 158.80477 35012 ft 538 kts 39°
2026-05-07 00:38 -31.16044 158.86999 35019 ft 539 kts 39°
2026-05-07 00:38 -31.11050 158.93520 35017 ft 539 kts 39°
2026-05-07 00:39 -31.06049 159.00042 35015 ft 539 kts 39°
2026-05-07 00:39 -31.01044 159.06556 35022 ft 540 kts 39°
2026-05-07 00:40 -30.96022 159.13081 35014 ft 541 kts 39°
2026-05-07 00:40 -30.90991 159.19610 35017 ft 542 kts 39°
2026-05-07 00:41 -30.85952 159.26134 35024 ft 542 kts 39°
2026-05-07 00:41 -30.80913 159.32649 35026 ft 542 kts 39°
2026-05-07 00:42 -30.75861 159.39167 35025 ft 543 kts 39°
2026-05-07 00:42 -30.70795 159.45693 35026 ft 544 kts 38°
2026-05-07 00:43 -30.65720 159.52220 35026 ft 544 kts 38°
2026-05-07 00:43 -30.60640 159.58743 35028 ft 545 kts 38°
2026-05-07 00:44 -30.55589 159.65215 35025 ft 545 kts 38°
2026-05-07 00:44 -30.50494 159.71735 35025 ft 545 kts 38°
2026-05-07 00:45 -30.45396 159.78250 35025 ft 546 kts 38°
2026-05-07 00:45 -30.40281 159.84772 35027 ft 548 kts 38°
2026-05-07 00:46 -30.35149 159.91306 35028 ft 548 kts 38°
2026-05-07 00:46 -30.30022 159.97824 35025 ft 548 kts 38°
2026-05-07 00:47 -30.24880 160.04349 35026 ft 548 kts 38°
2026-05-07 00:47 -30.19741 160.10860 35026 ft 548 kts 38°
2026-05-07 00:48 -30.14597 160.17366 35036 ft 548 kts 38°
2026-05-07 00:48 -30.09447 160.23867 35035 ft 548 kts 38°
2026-05-07 00:49 -30.04303 160.30359 35036 ft 548 kts 38°
2026-05-07 00:49 -29.99156 160.36836 35036 ft 548 kts 38°
2026-05-07 00:50 -29.93994 160.43317 35036 ft 549 kts 38°
2026-05-07 00:50 -29.88822 160.49802 35035 ft 549 kts 38°
2026-05-07 00:51 -29.83683 160.56236 35035 ft 549 kts 38°
2026-05-07 00:51 -29.78468 160.62755 35037 ft 550 kts 38°
2026-05-07 00:52 -29.73312 160.69192 35037 ft 550 kts 38°
2026-05-07 00:52 -29.68123 160.75658 35036 ft 550 kts 38°
2026-05-07 00:53 -29.62921 160.82127 35046 ft 551 kts 38°
2026-05-07 00:53 -29.57715 160.88592 35045 ft 551 kts 38°
2026-05-07 00:54 -29.52502 160.95058 35046 ft 552 kts 38°
2026-05-07 00:54 -29.47279 161.01524 35044 ft 552 kts 38°
2026-05-07 00:55 -29.42056 161.07980 35045 ft 553 kts 38°
2026-05-07 00:55 -29.36817 161.14444 35044 ft 553 kts 38°
2026-05-07 00:56 -29.31577 161.20899 35046 ft 553 kts 38°
2026-05-07 00:56 -29.26334 161.27348 35053 ft 553 kts 38°
2026-05-07 00:57 -29.21085 161.33789 35053 ft 554 kts 38°
2026-05-07 00:57 -29.15826 161.40238 35054 ft 554 kts 38°
2026-05-07 00:58 -29.10567 161.46677 35045 ft 554 kts 38°
2026-05-07 00:58 -29.05303 161.53110 35045 ft 554 kts 38°
2026-05-07 00:59 -28.97398 161.62748 35045 ft 555 kts 38°
2026-05-07 01:00 -28.92113 161.69181 35045 ft 555 kts 38°
2026-05-07 01:00 -28.86830 161.75602 35046 ft 555 kts 38°
2026-05-07 01:01 -28.81548 161.82009 35049 ft 555 kts 38°
2026-05-07 01:01 -28.76252 161.88425 35054 ft 556 kts 38°
2026-05-07 01:02 -28.70949 161.94839 35053 ft 556 kts 38°
2026-05-07 01:02 -28.65677 162.01207 35055 ft 556 kts 38°
2026-05-07 01:03 -28.60357 162.07618 35054 ft 558 kts 39°
2026-05-07 01:03 -28.55026 162.14032 35056 ft 558 kts 39°
2026-05-07 01:04 -28.49691 162.20447 35053 ft 558 kts 39°
2026-05-07 01:04 -28.44357 162.26851 35056 ft 558 kts 39°
2026-05-07 01:05 -28.39021 162.33246 35061 ft 558 kts 39°
2026-05-07 01:05 -28.33675 162.39633 35055 ft 558 kts 39°
2026-05-07 01:06 -28.28331 162.46016 35053 ft 558 kts 38°
2026-05-07 01:06 -28.22987 162.52391 35059 ft 558 kts 38°
2026-05-07 01:07 -28.17635 162.58763 35062 ft 558 kts 39°
2026-05-07 01:07 -28.12278 162.65131 35065 ft 558 kts 39°
2026-05-07 01:08 -28.06918 162.71494 35061 ft 558 kts 39°
2026-05-07 01:08 -28.01554 162.77849 35061 ft 558 kts 38°
2026-05-07 01:09 -27.96191 162.84194 35060 ft 558 kts 39°
2026-05-07 01:09 -27.90809 162.90551 35065 ft 561 kts 39°
2026-05-07 01:10 -27.86326 162.95842 35066 ft 561 kts 39°
2026-05-07 01:10 -27.81258 163.02613 35065 ft 569 kts 48°
2026-05-07 01:11 -27.76689 163.09940 35063 ft 572 kts 50°
2026-05-07 01:11 -27.72206 163.17359 35063 ft 572 kts 50°
2026-05-07 01:12 -27.67720 163.24771 35067 ft 572 kts 50°
2026-05-07 01:12 -27.63207 163.32173 35066 ft 572 kts 50°
2026-05-07 01:13 -27.58690 163.39554 35062 ft 572 kts 50°
2026-05-07 01:13 -27.54168 163.46932 35063 ft 572 kts 50°
2026-05-07 01:14 -27.49648 163.54300 35065 ft 572 kts 50°
2026-05-07 01:14 -27.45119 163.61661 35070 ft 572 kts 50°
2026-05-07 01:15 -27.40583 163.69023 35071 ft 572 kts 50°
2026-05-07 01:15 -27.36040 163.76386 35074 ft 573 kts 50°
2026-05-07 01:16 -27.31496 163.83737 35070 ft 572 kts 50°
2026-05-07 01:16 -27.26948 163.91084 35072 ft 573 kts 50°
2026-05-07 01:17 -27.22396 163.98432 35071 ft 573 kts 50°
2026-05-07 01:17 -27.17834 164.05773 35075 ft 573 kts 50°
2026-05-07 01:18 -27.13259 164.13123 35072 ft 574 kts 50°
2026-05-07 01:18 -27.08679 164.20475 35075 ft 575 kts 50°
2026-05-07 01:19 -27.04094 164.27826 35071 ft 576 kts 50°
2026-05-07 01:19 -26.99502 164.35177 35073 ft 575 kts 50°
2026-05-07 01:20 -26.94930 164.42473 35072 ft 576 kts 50°
2026-05-07 01:20 -26.90324 164.49812 35054 ft 576 kts 50°
2026-05-07 01:21 -26.85718 164.57139 35053 ft 575 kts 50°
2026-05-07 01:21 -26.81106 164.64470 35052 ft 576 kts 50°
2026-05-07 01:22 -26.76485 164.71800 35055 ft 576 kts 50°
2026-05-07 01:22 -26.71860 164.79128 35054 ft 577 kts 50°
2026-05-07 01:23 -26.67228 164.86454 35052 ft 577 kts 50°
2026-05-07 01:23 -26.62593 164.93771 35057 ft 577 kts 50°
2026-05-07 01:24 -26.57949 165.01090 35056 ft 578 kts 50°
2026-05-07 01:24 -26.53300 165.08407 35055 ft 578 kts 50°
2026-05-07 01:25 -26.48644 165.15720 35053 ft 578 kts 50°
2026-05-07 01:25 -26.43979 165.23035 35057 ft 578 kts 50°
2026-05-07 01:26 -26.39314 165.30342 35054 ft 578 kts 50°
2026-05-07 01:26 -26.34640 165.37650 35053 ft 579 kts 50°
2026-05-07 01:27 -26.29992 165.44903 35054 ft 579 kts 50°
2026-05-07 01:27 -26.25304 165.52210 35051 ft 580 kts 50°
2026-05-07 01:28 -26.20609 165.59517 35055 ft 580 kts 50°
2026-05-07 01:28 -26.15912 165.66814 35053 ft 580 kts 50°
2026-05-07 01:29 -26.11208 165.74110 35056 ft 580 kts 50°
2026-05-07 01:29 -26.06494 165.81412 35052 ft 581 kts 50°
2026-05-07 01:30 -26.01783 165.88700 35054 ft 581 kts 50°
2026-05-07 01:30 -25.97065 165.95982 35053 ft 581 kts 50°
2026-05-07 01:31 -25.92340 166.03262 35046 ft 581 kts 50°
2026-05-07 01:31 -25.87615 166.10534 35046 ft 581 kts 50°
2026-05-07 01:32 -25.82883 166.17805 35046 ft 581 kts 50°
2026-05-07 01:32 -25.78152 166.25063 35040 ft 581 kts 50°
2026-05-07 01:33 -25.73415 166.32314 35037 ft 580 kts 50°
2026-05-07 01:33 -25.68682 166.39552 35037 ft 580 kts 50°
2026-05-07 01:34 -25.63947 166.46785 35036 ft 580 kts 50°
2026-05-07 01:34 -25.59205 166.54017 35037 ft 580 kts 50°
2026-05-07 01:35 -25.54463 166.61236 35036 ft 579 kts 50°
2026-05-07 01:35 -25.49754 166.68394 35035 ft 579 kts 50°
2026-05-07 01:36 -25.45009 166.75593 35035 ft 579 kts 50°
2026-05-07 01:36 -25.40264 166.82783 35036 ft 578 kts 50°
2026-05-07 01:37 -25.35517 166.89966 35035 ft 578 kts 50°
2026-05-07 01:37 -25.30766 166.97144 35036 ft 579 kts 50°
2026-05-07 01:38 -25.26011 167.04315 35025 ft 578 kts 50°
2026-05-07 01:38 -25.21252 167.11480 35026 ft 578 kts 50°
2026-05-07 01:39 -25.16498 167.18631 35026 ft 578 kts 50°
2026-05-07 01:39 -25.11735 167.25785 35027 ft 579 kts 50°
2026-05-07 01:40 -25.06966 167.32935 35025 ft 579 kts 50°
2026-05-07 01:40 -25.02191 167.40085 35028 ft 578 kts 50°
2026-05-07 01:41 -24.97424 167.47209 35024 ft 578 kts 50°
2026-05-07 01:41 -24.92648 167.54342 35025 ft 578 kts 50°
2026-05-07 01:42 -24.87866 167.61471 35026 ft 578 kts 50°
2026-05-07 01:42 -24.83079 167.68593 35029 ft 578 kts 50°
2026-05-07 01:43 -24.78293 167.75706 35028 ft 579 kts 50°
2026-05-07 01:43 -24.73526 167.82781 35021 ft 579 kts 50°
2026-05-07 01:44 -24.68720 167.89888 35017 ft 580 kts 51°
2026-05-07 01:44 -24.63907 167.97009 35022 ft 579 kts 51°
2026-05-07 01:45 -24.59095 168.04123 35028 ft 580 kts 51°
2026-05-07 01:45 -24.54276 168.11223 35026 ft 580 kts 51°
2026-05-07 01:46 -24.49450 168.18320 35027 ft 580 kts 51°
2026-05-07 01:46 -24.44622 168.25419 35025 ft 580 kts 51°
2026-05-07 01:47 -24.39797 168.32508 35027 ft 580 kts 51°
2026-05-07 01:47 -24.34964 168.39594 35026 ft 580 kts 51°
2026-05-07 01:48 -24.30126 168.46674 35030 ft 580 kts 51°
2026-05-07 01:48 -24.25319 168.53699 35027 ft 580 kts 51°
2026-05-07 01:49 -24.20475 168.60762 35027 ft 580 kts 51°
2026-05-07 01:49 -24.15632 168.67826 35017 ft 580 kts 51°
2026-05-07 01:50 -24.10781 168.74890 35016 ft 580 kts 51°
2026-05-07 01:50 -24.05926 168.81949 35020 ft 580 kts 51°
2026-05-07 01:51 -24.01069 168.88997 35020 ft 580 kts 51°
2026-05-07 01:51 -23.96207 168.96042 35014 ft 580 kts 51°
2026-05-07 01:52 -23.91340 169.03086 35018 ft 580 kts 51°
2026-05-07 01:52 -23.86472 169.10122 35016 ft 580 kts 51°
2026-05-07 01:53 -23.81599 169.17155 35021 ft 581 kts 51°
2026-05-07 01:53 -23.76721 169.24185 35018 ft 580 kts 51°
2026-05-07 01:54 -23.71844 169.31200 35017 ft 581 kts 51°
2026-05-07 01:54 -23.66954 169.38225 35022 ft 581 kts 51°
2026-05-07 01:55 -23.62070 169.45237 35020 ft 581 kts 51°
2026-05-07 01:55 -23.57177 169.52250 35014 ft 581 kts 51°
2026-05-07 01:56 -23.52314 169.59206 35019 ft 581 kts 51°
2026-05-07 01:56 -23.47385 169.66251 35020 ft 581 kts 51°
2026-05-07 01:57 -23.42485 169.73246 35017 ft 581 kts 51°
2026-05-07 01:57 -23.37579 169.80243 35013 ft 581 kts 51°
2026-05-07 01:58 -23.32682 169.87212 35013 ft 580 kts 51°
2026-05-07 01:58 -23.28601 169.93010 35013 ft 580 kts 51°
2026-05-07 01:59 -23.22899 170.01102 35023 ft 580 kts 51°
2026-05-07 01:59 -23.17988 170.08068 35004 ft 581 kts 51°
2026-05-07 02:00 -23.13071 170.15028 35011 ft 581 kts 51°
2026-05-07 02:00 -23.08978 170.20812 35008 ft 580 kts 51°
2026-05-07 02:01 -23.04059 170.27757 35010 ft 580 kts 51°
2026-05-07 02:01 -22.99139 170.34696 35007 ft 580 kts 51°
2026-05-07 02:02 -22.94217 170.41627 35011 ft 580 kts 52°
2026-05-07 02:02 -22.89290 170.48556 35012 ft 580 kts 51°
2026-05-07 02:03 -22.84358 170.55481 35009 ft 580 kts 51°
2026-05-07 02:03 -22.79422 170.62402 35011 ft 580 kts 52°
2026-05-07 02:04 -22.74486 170.69317 35008 ft 580 kts 52°
2026-05-07 02:04 -22.69552 170.76219 35010 ft 579 kts 51°
2026-05-07 02:05 -22.64616 170.83115 35002 ft 579 kts 51°
2026-05-07 02:05 -22.59678 170.90006 35002 ft 579 kts 52°
2026-05-07 02:06 -22.54738 170.96892 35007 ft 579 kts 52°
2026-05-07 02:06 -22.49795 171.03771 35005 ft 579 kts 52°
2026-05-07 02:07 -22.44846 171.10648 35003 ft 579 kts 52°
2026-05-07 02:07 -22.37450 171.20909 34989 ft 579 kts 52°
2026-05-07 02:08 -22.32493 171.27773 34997 ft 580 kts 52°
2026-05-07 02:08 -22.27533 171.34634 35004 ft 579 kts 52°
2026-05-07 02:09 -22.22572 171.41492 35005 ft 580 kts 52°
2026-05-07 02:09 -22.17605 171.48346 34997 ft 579 kts 52°
2026-05-07 02:10 -22.12635 171.55194 35001 ft 580 kts 52°
2026-05-07 02:10 -22.07660 171.62046 34984 ft 580 kts 52°
2026-05-07 02:11 -22.02674 171.68896 35003 ft 580 kts 52°
2026-05-07 02:11 -21.97688 171.75735 34984 ft 580 kts 52°
2026-05-07 02:12 -21.92700 171.82568 34997 ft 580 kts 52°
2026-05-07 02:12 -21.87707 171.89403 34987 ft 580 kts 52°
2026-05-07 02:13 -21.82712 171.96231 35003 ft 580 kts 52°
2026-05-07 02:13 -21.77716 172.03050 34986 ft 581 kts 52°
2026-05-07 02:14 -21.72715 172.09866 34987 ft 581 kts 51°
2026-05-07 02:14 -21.67714 172.16678 34986 ft 580 kts 51°
2026-05-07 02:15 -21.62715 172.23481 34986 ft 580 kts 51°
2026-05-07 02:15 -21.57714 172.30275 34995 ft 579 kts 52°
2026-05-07 02:16 -21.52716 172.37054 34985 ft 579 kts 52°
2026-05-07 02:16 -21.47718 172.43829 34999 ft 578 kts 52°
2026-05-07 02:17 -21.42722 172.50591 34987 ft 577 kts 51°
2026-05-07 02:17 -21.37729 172.57339 34988 ft 577 kts 52°
2026-05-07 02:18 -21.32768 172.64032 34993 ft 577 kts 52°
2026-05-07 02:18 -21.27778 172.70763 34980 ft 576 kts 52°
2026-05-07 02:19 -21.22787 172.77486 34980 ft 576 kts 52°
2026-05-07 02:19 -21.17802 172.84193 34979 ft 575 kts 52°
2026-05-07 02:20 -21.12817 172.90891 34965 ft 575 kts 52°
2026-05-07 02:20 -21.07830 172.97584 34958 ft 575 kts 52°
2026-05-07 02:21 -21.02838 173.04275 34960 ft 575 kts 52°
2026-05-07 02:21 -20.97851 173.10951 34960 ft 575 kts 52°
2026-05-07 02:22 -20.92856 173.17629 34963 ft 575 kts 52°
2026-05-07 02:22 -20.87860 173.24302 34963 ft 574 kts 52°
2026-05-07 02:23 -20.82867 173.30962 34964 ft 574 kts 52°
2026-05-07 02:23 -20.77871 173.37619 34958 ft 574 kts 52°
2026-05-07 02:24 -20.72876 173.44263 34961 ft 573 kts 52°
2026-05-07 02:24 -20.67882 173.50901 34952 ft 573 kts 52°
2026-05-07 02:25 -20.62888 173.57535 34954 ft 573 kts 52°
2026-05-07 02:25 -20.57891 173.64164 34950 ft 573 kts 52°
2026-05-07 02:26 -20.52896 173.70781 34952 ft 572 kts 52°
2026-05-07 02:26 -20.47935 173.77350 34952 ft 572 kts 52°
2026-05-07 02:27 -20.42944 173.83944 34953 ft 572 kts 51°
2026-05-07 02:27 -20.37938 173.90551 34955 ft 572 kts 52°
2026-05-07 02:28 -20.32939 173.97142 34953 ft 571 kts 52°
2026-05-07 02:28 -20.27945 174.03720 34955 ft 571 kts 52°
2026-05-07 02:29 -20.22948 174.10296 34952 ft 571 kts 52°
2026-05-07 02:29 -20.17946 174.16870 34953 ft 571 kts 51°
2026-05-07 02:30 -20.12943 174.23436 34952 ft 571 kts 51°
2026-05-07 02:30 -20.07937 174.29998 34954 ft 571 kts 51°
2026-05-07 02:31 -20.02930 174.36556 34953 ft 571 kts 51°
2026-05-07 02:31 -19.97915 174.43116 34941 ft 571 kts 51°
2026-05-07 02:32 -19.92901 174.49667 34941 ft 571 kts 51°
2026-05-07 02:32 -19.87884 174.56216 34942 ft 571 kts 51°
2026-05-07 02:33 -19.82875 174.62749 34945 ft 570 kts 51°
2026-05-07 02:33 -19.77865 174.69271 34946 ft 570 kts 51°
2026-05-07 02:34 -19.72854 174.75792 34944 ft 570 kts 51°
2026-05-07 02:34 -19.67872 174.82264 34944 ft 570 kts 51°
2026-05-07 02:35 -19.62856 174.88771 34941 ft 570 kts 51°
2026-05-07 02:35 -19.57803 174.95327 34933 ft 570 kts 51°
2026-05-07 02:36 -19.52820 175.01786 34937 ft 570 kts 51°
2026-05-07 02:36 -19.47798 175.08285 34934 ft 570 kts 51°
2026-05-07 02:37 -19.42774 175.14776 34934 ft 570 kts 51°
2026-05-07 02:37 -19.37747 175.21267 34933 ft 570 kts 51°
2026-05-07 02:38 -19.32720 175.27753 34925 ft 569 kts 51°
2026-05-07 02:38 -19.27690 175.34231 34925 ft 570 kts 51°
2026-05-07 02:39 -19.22664 175.40703 34924 ft 569 kts 51°
2026-05-07 02:39 -19.17637 175.47160 34924 ft 569 kts 51°
2026-05-07 02:40 -19.12604 175.53619 34917 ft 569 kts 51°
2026-05-07 02:40 -19.07572 175.60069 34916 ft 568 kts 51°
2026-05-07 02:41 -19.02548 175.66502 34915 ft 568 kts 51°
2026-05-07 02:41 -18.97523 175.72936 34916 ft 568 kts 51°
2026-05-07 02:42 -18.92498 175.79358 34915 ft 567 kts 51°
2026-05-07 02:42 -18.87473 175.85772 34915 ft 566 kts 51°
2026-05-07 02:43 -18.82451 175.92176 34915 ft 566 kts 51°
2026-05-07 02:43 -18.77434 175.98569 34918 ft 566 kts 51°
2026-05-07 02:44 -18.72412 176.04960 34916 ft 565 kts 51°
2026-05-07 02:44 -18.67396 176.11340 34915 ft 564 kts 51°
2026-05-07 02:45 -18.62388 176.17703 34916 ft 564 kts 51°
2026-05-07 02:45 -18.57381 176.24059 34916 ft 563 kts 51°
2026-05-07 02:46 -18.52366 176.30414 34915 ft 564 kts 51°
2026-05-07 02:46 -18.47387 176.36720 34915 ft 564 kts 51°
2026-05-07 02:47 -18.42371 176.43064 34915 ft 564 kts 51°
2026-05-07 02:47 -18.37352 176.49408 34916 ft 564 kts 51°
2026-05-07 02:48 -18.32334 176.55742 34916 ft 563 kts 51°
2026-05-07 02:48 -18.28159 176.61009 34915 ft 564 kts 51°
2026-05-07 02:49 -18.23136 176.67338 34915 ft 563 kts 51°
2026-05-07 02:49 -18.18109 176.73664 34915 ft 563 kts 51°
2026-05-07 02:50 -18.13090 176.79981 34915 ft 562 kts 51°
2026-05-07 02:50 -18.08073 176.86291 34916 ft 562 kts 51°
2026-05-07 02:51 -18.03053 176.92590 34914 ft 563 kts 51°
2026-05-07 02:51 -17.98023 176.98895 34916 ft 563 kts 51°
2026-05-07 02:52 -17.93004 177.05185 34915 ft 561 kts 51°
2026-05-07 02:52 -17.87986 177.11467 34916 ft 561 kts 51°
2026-05-07 02:53 -17.82969 177.17744 34915 ft 561 kts 51°
2026-05-07 02:53 -17.77951 177.24013 34915 ft 561 kts 51°
2026-05-07 02:54 -17.72935 177.30273 34915 ft 560 kts 50°
2026-05-07 02:54 -17.67951 177.36487 34915 ft 560 kts 50°
2026-05-07 02:55 -17.62908 177.42785 34916 ft 560 kts 51°
2026-05-07 02:55 -17.57965 177.49034 34915 ft 560 kts 51°
2026-05-07 02:56 -17.52994 177.55326 34918 ft 560 kts 51°
2026-05-07 02:56 -17.48018 177.61612 34916 ft 560 kts 51°
2026-05-07 02:57 -17.43038 177.67888 34915 ft 560 kts 51°
2026-05-07 02:57 -17.38053 177.74159 34915 ft 560 kts 51°
2026-05-07 02:58 -17.33065 177.80429 34915 ft 561 kts 51°
2026-05-07 02:58 -17.28079 177.86694 34916 ft 560 kts 51°
2026-05-07 02:59 -17.23089 177.92960 34915 ft 560 kts 51°
2026-05-07 02:59 -17.18098 177.99218 34916 ft 560 kts 51°
2026-05-07 03:00 -17.13111 178.05472 34916 ft 559 kts 51°
2026-05-07 03:00 -17.08134 178.11705 34915 ft 558 kts 50°
2026-05-07 03:01 -17.03157 178.17927 34915 ft 558 kts 50°
2026-05-07 03:01 -16.98183 178.24140 34916 ft 557 kts 50°
2026-05-07 03:02 -16.93210 178.30351 34925 ft 557 kts 50°
2026-05-07 03:02 -16.88234 178.36558 34924 ft 557 kts 50°
2026-05-07 03:03 -16.83254 178.42760 34925 ft 557 kts 50°
2026-05-07 03:03 -16.78274 178.48964 34918 ft 557 kts 50°
2026-05-07 03:04 -16.73327 178.55118 34915 ft 557 kts 50°
2026-05-07 03:04 -16.68343 178.61312 34919 ft 557 kts 50°
2026-05-07 03:05 -16.63357 178.67502 34898 ft 557 kts 50°
2026-05-07 03:05 -16.58379 178.73679 34897 ft 556 kts 50°
2026-05-07 03:06 -16.53385 178.79847 34897 ft 556 kts 50°
2026-05-07 03:06 -16.48367 178.85988 34897 ft 556 kts 50°
2026-05-07 03:07 -16.43350 178.92125 34890 ft 556 kts 49°
2026-05-07 03:07 -16.38347 178.98254 34888 ft 555 kts 49°
2026-05-07 03:08 -16.33344 179.04380 34887 ft 555 kts 49°
2026-05-07 03:08 -16.28336 179.10499 34888 ft 555 kts 49°
2026-05-07 03:09 -16.23338 179.16607 34888 ft 554 kts 49°
2026-05-07 03:09 -16.18346 179.22708 34887 ft 553 kts 49°
2026-05-07 03:10 -16.13354 179.28799 34888 ft 553 kts 49°
2026-05-07 03:10 -16.08367 179.34878 34887 ft 552 kts 49°
2026-05-07 03:11 -16.03379 179.40957 34888 ft 552 kts 49°
2026-05-07 03:11 -15.98399 179.47017 34888 ft 551 kts 49°
2026-05-07 03:12 -15.93425 179.53064 34887 ft 550 kts 49°
2026-05-07 03:12 -15.88449 179.59110 34888 ft 550 kts 49°
2026-05-07 03:13 -15.83482 179.65138 34887 ft 549 kts 49°
2026-05-07 03:13 -15.78515 179.71160 34887 ft 548 kts 49°
2026-05-07 03:14 -15.73555 179.77170 34888 ft 549 kts 49°
2026-05-07 03:15 -15.66138 179.86151 34888 ft 549 kts 49°
2026-05-07 03:15 -15.61170 179.92160 34888 ft 549 kts 49°
2026-05-07 03:16 -15.56197 179.98168 34887 ft 549 kts 49°
2026-05-07 03:16 -15.51226 -179.95828 34880 ft 548 kts 49°
2026-05-07 03:17 -15.46263 -179.89840 34878 ft 548 kts 49°
2026-05-07 03:17 -15.41294 -179.83850 34877 ft 547 kts 49°
2026-05-07 03:18 -15.36327 -179.77870 34878 ft 548 kts 49°
2026-05-07 03:18 -15.31357 -179.71888 34879 ft 547 kts 48°
2026-05-07 03:19 -15.26386 -179.65916 34877 ft 548 kts 48°
2026-05-07 03:19 -15.21431 -179.59933 34883 ft 547 kts 49°
2026-05-07 03:20 -15.16480 -179.53957 34876 ft 547 kts 49°
2026-05-07 03:20 -15.11514 -179.47973 34877 ft 548 kts 49°
2026-05-07 03:21 -15.06549 -179.41998 34876 ft 548 kts 49°
2026-05-07 03:21 -15.01581 -179.36024 34877 ft 547 kts 49°
2026-05-07 03:22 -14.96610 -179.30053 34883 ft 547 kts 49°
2026-05-07 03:22 -14.91646 -179.24096 34878 ft 547 kts 49°
2026-05-07 03:23 -14.86684 -179.18144 34876 ft 546 kts 49°
2026-05-07 03:23 -14.81754 -179.12235 34876 ft 546 kts 48°
2026-05-07 03:24 -14.76767 -179.06261 34878 ft 545 kts 48°
2026-05-07 03:24 -14.71848 -179.00372 34879 ft 545 kts 48°
2026-05-07 03:25 -14.66892 -178.94448 34879 ft 545 kts 48°
2026-05-07 03:25 -14.61942 -178.88532 34880 ft 544 kts 48°
2026-05-07 03:26 -14.56996 -178.82624 34876 ft 544 kts 48°
2026-05-07 03:26 -14.52052 -178.76727 34878 ft 543 kts 48°
2026-05-07 03:27 -14.47112 -178.70837 34879 ft 542 kts 48°
2026-05-07 03:27 -14.42177 -178.64958 34876 ft 542 kts 48°
2026-05-07 03:28 -14.37241 -178.59085 34880 ft 542 kts 47°
2026-05-07 03:28 -14.32306 -178.53215 34878 ft 542 kts 47°
2026-05-07 03:29 -14.27373 -178.47351 34878 ft 541 kts 47°
2026-05-07 03:29 -14.22446 -178.41496 34878 ft 540 kts 47°
2026-05-07 03:30 -14.17518 -178.35646 34882 ft 540 kts 47°
2026-05-07 03:30 -14.12596 -178.29807 34880 ft 539 kts 47°
2026-05-07 03:31 -14.07681 -178.23983 34880 ft 539 kts 47°
2026-05-07 03:31 -14.02765 -178.18164 34881 ft 538 kts 47°
2026-05-07 03:32 -13.97851 -178.12346 34881 ft 538 kts 47°
2026-05-07 03:32 -13.92940 -178.06536 34879 ft 538 kts 47°
2026-05-07 03:33 -13.88028 -178.00729 34879 ft 538 kts 47°
2026-05-07 03:33 -13.83115 -177.94925 34879 ft 538 kts 47°
2026-05-07 03:34 -13.78198 -177.89121 34879 ft 538 kts 47°
2026-05-07 03:34 -13.73280 -177.83320 34877 ft 538 kts 47°
2026-05-07 03:35 -13.68363 -177.77523 34880 ft 537 kts 47°
2026-05-07 03:35 -13.64275 -177.72710 34876 ft 537 kts 47°
2026-05-07 03:36 -13.58563 -177.65987 34877 ft 537 kts 47°
2026-05-07 03:36 -13.53650 -177.60208 34876 ft 537 kts 47°
2026-05-07 03:37 -13.49532 -177.55366 34876 ft 536 kts 47°
2026-05-07 03:37 -13.44631 -177.49608 34878 ft 536 kts 47°
2026-05-07 03:38 -13.39723 -177.43848 34876 ft 535 kts 47°
2026-05-07 03:38 -13.34823 -177.38097 34881 ft 534 kts 47°
2026-05-07 03:39 -13.29927 -177.32357 34880 ft 534 kts 47°
2026-05-07 03:39 -13.25067 -177.26667 34878 ft 534 kts 47°
2026-05-07 03:40 -13.20179 -177.20945 34886 ft 533 kts 46°
2026-05-07 03:40 -13.15290 -177.15220 34886 ft 533 kts 46°
2026-05-07 03:41 -13.10399 -177.09500 34889 ft 533 kts 46°
2026-05-07 03:41 -13.05512 -177.03793 34889 ft 532 kts 46°
2026-05-07 03:42 -13.00628 -176.98091 34889 ft 532 kts 46°
2026-05-07 03:42 -12.95738 -176.92396 34888 ft 532 kts 46°
2026-05-07 03:43 -12.90852 -176.86703 34887 ft 531 kts 46°
2026-05-07 03:43 -12.85968 -176.81019 34888 ft 531 kts 46°
2026-05-07 03:44 -12.81094 -176.75351 34888 ft 530 kts 46°
2026-05-07 03:44 -12.76211 -176.69675 34887 ft 530 kts 46°
2026-05-07 03:45 -12.71335 -176.64012 34887 ft 530 kts 46°
2026-05-07 03:45 -12.66459 -176.58354 34888 ft 530 kts 46°
2026-05-07 03:46 -12.61580 -176.52694 34887 ft 530 kts 46°
2026-05-07 03:46 -12.56706 -176.47044 34888 ft 529 kts 46°
2026-05-07 03:47 -12.51833 -176.41397 34887 ft 529 kts 46°
2026-05-07 03:47 -12.46959 -176.35755 34887 ft 529 kts 46°
2026-05-07 03:48 -12.42090 -176.30119 34888 ft 529 kts 46°
2026-05-07 03:48 -12.37217 -176.24483 34888 ft 529 kts 46°
2026-05-07 03:49 -12.32348 -176.18854 34888 ft 528 kts 46°
2026-05-07 03:49 -12.27511 -176.13267 34884 ft 528 kts 46°
2026-05-07 03:50 -12.22645 -176.07651 34879 ft 528 kts 46°
2026-05-07 03:50 -12.17772 -176.02031 34877 ft 528 kts 46°
2026-05-07 03:51 -12.12903 -175.96416 34877 ft 528 kts 46°
2026-05-07 03:51 -12.08033 -175.90806 34876 ft 528 kts 46°
2026-05-07 03:52 -12.03165 -175.85199 34877 ft 527 kts 46°
2026-05-07 03:52 -11.98296 -175.79596 34879 ft 527 kts 46°
2026-05-07 03:53 -11.93423 -175.73991 34877 ft 528 kts 46°
2026-05-07 03:53 -11.88550 -175.68389 34880 ft 528 kts 46°
2026-05-07 03:54 -11.83674 -175.62788 34880 ft 528 kts 46°
2026-05-07 03:54 -11.78799 -175.57190 34876 ft 527 kts 46°
2026-05-07 03:55 -11.73931 -175.51606 34880 ft 527 kts 46°
2026-05-07 03:55 -11.69059 -175.46018 34880 ft 527 kts 46°
2026-05-07 03:56 -11.64193 -175.40439 34874 ft 526 kts 46°
2026-05-07 03:56 -11.61762 -175.37653 35023 ft 524 kts 46°
2026-05-07 03:56 -11.59345 -175.34885 35278 ft 521 kts 46°
2026-05-07 03:56 -11.56939 -175.32128 35432 ft 520 kts 46°
2026-05-07 03:57 -11.54533 -175.29372 35571 ft 520 kts 46°
2026-05-07 03:57 -11.52129 -175.26621 35677 ft 519 kts 46°
2026-05-07 03:57 -11.49726 -175.23874 35755 ft 520 kts 45°
2026-05-07 03:58 -11.44912 -175.18370 35978 ft 520 kts 45°
2026-05-07 03:58 -11.40098 -175.12867 36159 ft 520 kts 45°
2026-05-07 03:59 -11.35285 -175.07371 36318 ft 520 kts 45°
2026-05-07 03:59 -11.30979 -175.02451 36439 ft 521 kts 45°
2026-05-07 04:00 -11.26152 -174.96941 36606 ft 520 kts 45°
2026-05-07 04:00 -11.23745 -174.94195 36707 ft 520 kts 45°
2026-05-07 04:00 -11.21340 -174.91451 36839 ft 519 kts 45°
2026-05-07 04:01 -11.16527 -174.85966 36871 ft 519 kts 45°
2026-05-07 04:01 -11.12264 -174.81109 36870 ft 518 kts 45°
2026-05-07 04:02 -11.07468 -174.75650 36869 ft 517 kts 45°
2026-05-07 04:02 -11.02676 -174.70198 36869 ft 517 kts 45°
2026-05-07 04:03 -10.97888 -174.64749 36869 ft 516 kts 45°
2026-05-07 04:03 -10.93098 -174.59300 36869 ft 516 kts 45°
2026-05-07 04:04 -10.88345 -174.53900 36869 ft 516 kts 45°
2026-05-07 04:04 -10.83739 -174.48667 36862 ft 516 kts 45°
2026-05-07 04:05 -10.78956 -174.43238 36860 ft 515 kts 45°
2026-05-07 04:05 -10.74173 -174.37812 36860 ft 515 kts 45°
2026-05-07 04:06 -10.69391 -174.32390 36859 ft 515 kts 45°
2026-05-07 04:06 -10.64609 -174.26969 36860 ft 515 kts 45°
2026-05-07 04:07 -10.59829 -174.21554 36860 ft 514 kts 45°
2026-05-07 04:07 -10.55055 -174.16146 36859 ft 514 kts 45°
2026-05-07 04:08 -10.50285 -174.10743 36859 ft 514 kts 45°
2026-05-07 04:08 -10.45508 -174.05341 36859 ft 513 kts 45°
2026-05-07 04:09 -10.40768 -173.99983 36860 ft 513 kts 45°
2026-05-07 04:09 -10.35997 -173.94591 36860 ft 513 kts 45°
2026-05-07 04:10 -10.31343 -173.89337 36860 ft 513 kts 45°
2026-05-07 04:10 -10.26704 -173.84100 36860 ft 512 kts 45°
2026-05-07 04:11 -10.21936 -173.78720 36860 ft 512 kts 45°
2026-05-07 04:11 -10.17426 -173.73632 36860 ft 512 kts 45°
2026-05-07 04:12 -10.12664 -173.68258 36860 ft 512 kts 45°
2026-05-07 04:12 -10.07899 -173.62892 36860 ft 512 kts 45°
2026-05-07 04:13 -10.03127 -173.57518 36859 ft 512 kts 45°
2026-05-07 04:13 -9.98354 -173.52145 36859 ft 512 kts 45°
2026-05-07 04:14 -9.93587 -173.46780 36860 ft 512 kts 45°
2026-05-07 04:14 -9.88853 -173.41456 36860 ft 511 kts 45°
2026-05-07 04:15 -9.84089 -173.36100 36861 ft 511 kts 45°
2026-05-07 04:15 -9.79324 -173.30746 36861 ft 511 kts 45°
2026-05-07 04:16 -9.74563 -173.25398 36860 ft 511 kts 45°
2026-05-07 04:16 -9.69802 -173.20054 36860 ft 510 kts 45°
2026-05-07 04:17 -9.65044 -173.14715 36860 ft 510 kts 45°
2026-05-07 04:17 -9.60287 -173.09378 36860 ft 510 kts 45°
2026-05-07 04:18 -9.55533 -173.04048 36860 ft 510 kts 45°
2026-05-07 04:18 -9.50776 -172.98717 36861 ft 510 kts 45°
2026-05-07 04:19 -9.46017 -172.93387 36861 ft 510 kts 45°
2026-05-07 04:19 -9.41260 -172.88060 36860 ft 510 kts 45°
2026-05-07 04:20 -9.36509 -172.82735 36867 ft 509 kts 45°
2026-05-07 04:20 -9.31759 -172.77415 36869 ft 509 kts 44°
2026-05-07 04:21 -9.24636 -172.69440 36869 ft 508 kts 44°
2026-05-07 04:21 -9.19920 -172.64165 36870 ft 509 kts 44°
2026-05-07 04:22 -9.15173 -172.58856 36870 ft 508 kts 44°
2026-05-07 04:22 -9.10430 -172.53552 36870 ft 508 kts 44°
2026-05-07 04:23 -9.05685 -172.48250 36872 ft 508 kts 44°
2026-05-07 04:23 -9.00946 -172.42959 36870 ft 507 kts 44°
2026-05-07 04:24 -8.96207 -172.37672 36869 ft 507 kts 44°
2026-05-07 04:24 -8.91474 -172.32391 36870 ft 507 kts 44°
2026-05-07 04:25 -8.87539 -172.28003 36869 ft 506 kts 44°
2026-05-07 04:25 -8.82811 -172.22732 36869 ft 506 kts 44°
2026-05-07 04:26 -8.78086 -172.17465 36869 ft 505 kts 44°
2026-05-07 04:26 -8.73332 -172.12172 36869 ft 505 kts 44°
2026-05-07 04:27 -8.68652 -172.06958 36870 ft 504 kts 44°
2026-05-07 04:27 -8.63940 -172.01713 36869 ft 504 kts 44°
2026-05-07 04:28 -8.59231 -171.96474 36862 ft 503 kts 44°
2026-05-07 04:28 -8.54530 -171.91245 36860 ft 502 kts 44°
2026-05-07 04:29 -8.49828 -171.86021 36860 ft 502 kts 44°
2026-05-07 04:29 -8.45319 -171.81007 36860 ft 501 kts 44°
2026-05-07 04:30 -8.40660 -171.75828 36859 ft 501 kts 44°
2026-05-07 04:30 -8.35966 -171.70618 36859 ft 502 kts 44°
2026-05-07 04:31 -8.31270 -171.65405 36860 ft 502 kts 44°
2026-05-07 04:31 -8.26575 -171.60193 36860 ft 502 kts 44°
2026-05-07 04:32 -8.21877 -171.54983 36859 ft 502 kts 44°
2026-05-07 04:32 -8.17177 -171.49773 36860 ft 502 kts 44°
2026-05-07 04:33 -8.12484 -171.44571 36860 ft 501 kts 44°
2026-05-07 04:33 -8.07788 -171.39368 36859 ft 501 kts 44°
2026-05-07 04:34 -8.03092 -171.34168 36860 ft 501 kts 44°
2026-05-07 04:34 -7.98389 -171.28963 36860 ft 502 kts 44°
2026-05-07 04:35 -7.93694 -171.23766 36860 ft 500 kts 44°
2026-05-07 04:35 -7.89007 -171.18580 36859 ft 500 kts 44°
2026-05-07 04:36 -7.84320 -171.13399 36859 ft 500 kts 44°
2026-05-07 04:36 -7.79634 -171.08218 36860 ft 500 kts 44°
2026-05-07 04:37 -7.74951 -171.03038 36860 ft 500 kts 44°
2026-05-07 04:37 -7.70265 -170.97862 36860 ft 499 kts 44°
2026-05-07 04:38 -7.65577 -170.92688 36860 ft 500 kts 44°
2026-05-07 04:38 -7.60890 -170.87515 36860 ft 500 kts 44°
2026-05-07 04:39 -7.56233 -170.82375 36860 ft 500 kts 44°
2026-05-07 04:39 -7.51544 -170.77202 36860 ft 500 kts 44°
2026-05-07 04:40 -7.46858 -170.72031 36859 ft 499 kts 44°
2026-05-07 04:40 -7.42169 -170.66864 36859 ft 499 kts 44°
2026-05-07 04:41 -7.37484 -170.61701 36860 ft 499 kts 44°
2026-05-07 04:41 -7.32792 -170.56532 36860 ft 500 kts 44°
2026-05-07 04:42 -7.28101 -170.51367 36859 ft 499 kts 44°
2026-05-07 04:42 -7.23418 -170.46211 36859 ft 499 kts 44°
2026-05-07 04:43 -7.18728 -170.41051 36860 ft 499 kts 44°
2026-05-07 04:43 -7.14039 -170.35891 36860 ft 499 kts 44°
2026-05-07 04:44 -7.09349 -170.30731 36860 ft 499 kts 44°
2026-05-07 04:44 -7.04656 -170.25570 36860 ft 500 kts 44°
2026-05-07 04:45 -6.99960 -170.20410 36859 ft 500 kts 44°
2026-05-07 04:45 -6.95266 -170.15249 36860 ft 500 kts 44°
2026-05-07 04:46 -6.90569 -170.10091 36860 ft 499 kts 44°
2026-05-07 04:46 -6.85874 -170.04934 36860 ft 499 kts 44°
2026-05-07 04:47 -6.81180 -169.99783 36860 ft 499 kts 44°
2026-05-07 04:47 -6.76492 -169.94642 36859 ft 499 kts 44°
2026-05-07 04:48 -6.71832 -169.89529 36860 ft 499 kts 44°
2026-05-07 04:48 -6.67144 -169.84387 36860 ft 499 kts 44°
2026-05-07 04:49 -6.62452 -169.79242 36860 ft 499 kts 44°
2026-05-07 04:49 -6.57761 -169.74097 36860 ft 499 kts 44°
2026-05-07 04:50 -6.53072 -169.68961 36860 ft 499 kts 44°
2026-05-07 04:50 -6.48378 -169.63822 36860 ft 499 kts 44°
2026-05-07 04:51 -6.43685 -169.58685 36859 ft 499 kts 44°
2026-05-07 04:51 -6.38993 -169.53550 36860 ft 499 kts 44°
2026-05-07 04:52 -6.34301 -169.48412 36859 ft 499 kts 45°
2026-05-07 04:52 -6.29611 -169.43278 36859 ft 499 kts 45°
2026-05-07 04:53 -6.24951 -169.38179 36860 ft 498 kts 44°
2026-05-07 04:53 -6.20261 -169.33051 36859 ft 498 kts 44°
2026-05-07 04:54 -6.15572 -169.27924 36860 ft 498 kts 44°
2026-05-07 04:54 -6.10884 -169.22803 36860 ft 498 kts 44°
2026-05-07 04:55 -6.06194 -169.17679 36859 ft 498 kts 44°
2026-05-07 04:55 -6.01504 -169.12559 36859 ft 498 kts 45°
2026-05-07 04:56 -5.96820 -169.07443 36860 ft 497 kts 45°
2026-05-07 04:56 -5.92143 -169.02337 36860 ft 496 kts 45°
2026-05-07 04:57 -5.87474 -168.97239 36860 ft 496 kts 45°
2026-05-07 04:57 -5.82806 -168.92147 36860 ft 495 kts 45°
2026-05-07 04:58 -5.78140 -168.87058 36860 ft 495 kts 45°
2026-05-07 04:58 -5.73480 -168.81976 36860 ft 495 kts 45°
2026-05-07 04:59 -5.68817 -168.76890 36860 ft 495 kts 45°
2026-05-07 04:59 -5.64156 -168.71809 36859 ft 494 kts 45°
2026-05-07 05:00 -5.59495 -168.66730 36860 ft 494 kts 45°
2026-05-07 05:00 -5.54837 -168.61656 36859 ft 494 kts 45°
2026-05-07 05:01 -5.50211 -168.56618 36860 ft 494 kts 45°
2026-05-07 05:01 -5.45552 -168.51546 36860 ft 494 kts 45°
2026-05-07 05:02 -5.40894 -168.46475 36860 ft 494 kts 45°
2026-05-07 05:02 -5.36241 -168.41412 36859 ft 494 kts 45°
2026-05-07 05:03 -5.31583 -168.36344 36860 ft 494 kts 45°
2026-05-07 05:03 -5.26926 -168.31278 36860 ft 494 kts 45°
2026-05-07 05:04 -5.22273 -168.26214 36860 ft 493 kts 45°
2026-05-07 05:04 -5.17617 -168.21153 36859 ft 493 kts 45°
2026-05-07 05:05 -5.12960 -168.16092 36881 ft 494 kts 45°
2026-05-07 05:05 -5.08304 -168.11031 36878 ft 493 kts 45°
2026-05-07 05:06 -5.03649 -168.05972 36878 ft 493 kts 45°
2026-05-07 05:06 -4.98998 -168.00921 36881 ft 493 kts 45°
2026-05-07 05:07 -4.94467 -167.95745 36879 ft 494 kts 47°
2026-05-07 05:07 -4.90007 -167.90506 36874 ft 494 kts 47°
2026-05-07 05:08 -4.85530 -167.85284 36875 ft 493 kts 47°
2026-05-07 05:08 -4.81037 -167.80083 36881 ft 493 kts 47°
2026-05-07 05:09 -4.76566 -167.74924 36881 ft 493 kts 47°
2026-05-07 05:09 -4.72068 -167.69727 36881 ft 493 kts 47°
2026-05-07 05:10 -4.67576 -167.64539 36877 ft 493 kts 47°
2026-05-07 05:10 -4.63082 -167.59352 36878 ft 493 kts 47°
2026-05-07 05:11 -4.58587 -167.54163 36873 ft 493 kts 47°
2026-05-07 05:11 -4.54090 -167.48973 36877 ft 493 kts 47°
2026-05-07 05:12 -4.49592 -167.43784 36879 ft 493 kts 47°
2026-05-07 05:12 -4.45094 -167.38595 36879 ft 493 kts 47°
2026-05-07 05:13 -4.40596 -167.33406 36880 ft 493 kts 47°
2026-05-07 05:13 -4.36860 -167.29099 36881 ft 493 kts 47°
2026-05-07 05:14 -4.32366 -167.23915 36879 ft 493 kts 47°
2026-05-07 05:14 -4.27138 -167.17886 36880 ft 493 kts 47°
2026-05-07 05:15 -4.23375 -167.13550 36880 ft 492 kts 47°
2026-05-07 05:15 -4.18882 -167.08374 36881 ft 492 kts 47°
2026-05-07 05:16 -4.14389 -167.03196 36874 ft 492 kts 47°
2026-05-07 05:16 -4.09894 -166.98022 36876 ft 492 kts 47°
2026-05-07 05:17 -4.05409 -166.92855 36878 ft 492 kts 47°
2026-05-07 05:17 -4.00920 -166.87686 36879 ft 492 kts 47°
2026-05-07 05:18 -3.96434 -166.82520 36875 ft 491 kts 48°
2026-05-07 05:18 -3.91989 -166.77403 36881 ft 490 kts 48°
2026-05-07 05:19 -3.87518 -166.72258 36881 ft 489 kts 48°
2026-05-07 05:19 -3.83047 -166.67116 36879 ft 490 kts 48°
2026-05-07 05:20 -3.78577 -166.61973 36881 ft 489 kts 48°
2026-05-07 05:20 -3.74109 -166.56834 36876 ft 489 kts 48°
2026-05-07 05:21 -3.67416 -166.49136 36879 ft 489 kts 48°
2026-05-07 05:22 -3.62948 -166.43999 36877 ft 489 kts 48°
2026-05-07 05:22 -3.58481 -166.38862 36881 ft 489 kts 48°
2026-05-07 05:23 -3.54012 -166.33725 36880 ft 489 kts 48°
2026-05-07 05:23 -3.49544 -166.28592 36881 ft 489 kts 48°
2026-05-07 05:24 -3.45078 -166.23458 36881 ft 489 kts 48°
2026-05-07 05:24 -3.40608 -166.18325 36879 ft 489 kts 48°
2026-05-07 05:25 -3.36169 -166.13226 36881 ft 489 kts 48°
2026-05-07 05:25 -3.31702 -166.08095 36879 ft 489 kts 48°
2026-05-07 05:26 -3.27210 -166.02937 36881 ft 489 kts 48°
2026-05-07 05:26 -3.22773 -165.97844 36877 ft 489 kts 48°
2026-05-07 05:27 -3.18309 -165.92719 36877 ft 488 kts 48°
2026-05-07 05:27 -3.13846 -165.87599 36877 ft 488 kts 48°
2026-05-07 05:28 -3.09385 -165.82478 36882 ft 488 kts 48°
2026-05-07 05:28 -3.04927 -165.77357 36878 ft 488 kts 48°
2026-05-07 05:29 -3.00471 -165.72246 36876 ft 488 kts 48°
2026-05-07 05:29 -2.96008 -165.67128 36877 ft 488 kts 48°
2026-05-07 05:30 -2.91547 -165.62013 36879 ft 488 kts 48°
2026-05-07 05:30 -2.87086 -165.56895 36877 ft 488 kts 48°
2026-05-07 05:31 -2.82625 -165.51780 36881 ft 488 kts 48°
2026-05-07 05:31 -2.78161 -165.46662 36878 ft 488 kts 48°
2026-05-07 05:32 -2.73697 -165.41545 36881 ft 488 kts 48°
2026-05-07 05:32 -2.69233 -165.36428 36879 ft 488 kts 48°
2026-05-07 05:33 -2.64805 -165.31353 36876 ft 488 kts 48°
2026-05-07 05:33 -2.60342 -165.26238 36879 ft 488 kts 48°
2026-05-07 05:34 -2.55877 -165.21123 36880 ft 488 kts 48°
2026-05-07 05:34 -2.51413 -165.16008 36879 ft 488 kts 48°
2026-05-07 05:35 -2.46950 -165.10894 36880 ft 488 kts 48°
2026-05-07 05:35 -2.42491 -165.05785 36875 ft 488 kts 48°
2026-05-07 05:36 -2.38029 -165.00676 36881 ft 488 kts 48°
2026-05-07 05:36 -2.33567 -164.95565 36879 ft 488 kts 48°
2026-05-07 05:37 -2.29106 -164.90453 36878 ft 488 kts 48°
2026-05-07 05:37 -2.24640 -164.85340 36880 ft 488 kts 48°
2026-05-07 05:38 -2.20172 -164.80223 36869 ft 488 kts 48°
2026-05-07 05:38 -2.15701 -164.75104 36869 ft 489 kts 48°
2026-05-07 05:39 -2.11234 -164.69991 36870 ft 489 kts 48°
2026-05-07 05:39 -2.06788 -164.64905 36870 ft 489 kts 48°
2026-05-07 05:40 -2.02311 -164.59784 36870 ft 489 kts 48°
2026-05-07 05:40 -1.97835 -164.54661 36868 ft 489 kts 48°
2026-05-07 05:41 -1.93359 -164.49539 36869 ft 489 kts 48°
2026-05-07 05:41 -1.88906 -164.44443 36870 ft 489 kts 48°
2026-05-07 05:42 -1.84429 -164.39323 36870 ft 489 kts 48°
2026-05-07 05:42 -1.79955 -164.34201 36869 ft 489 kts 48°
2026-05-07 05:43 -1.75476 -164.29082 36869 ft 489 kts 48°
2026-05-07 05:43 -1.71028 -164.23997 36868 ft 489 kts 48°
2026-05-07 05:44 -1.66551 -164.18875 36868 ft 489 kts 48°
2026-05-07 05:44 -1.62072 -164.13753 36868 ft 489 kts 48°
2026-05-07 05:45 -1.57595 -164.08631 36869 ft 489 kts 48°
2026-05-07 05:45 -1.53122 -164.03519 36870 ft 489 kts 48°
2026-05-07 05:46 -1.48642 -163.98398 36870 ft 489 kts 48°
2026-05-07 05:46 -1.44165 -163.93279 36869 ft 489 kts 48°
2026-05-07 05:47 -1.39695 -163.88161 36870 ft 489 kts 48°
2026-05-07 05:47 -1.35219 -163.83045 36869 ft 489 kts 48°
2026-05-07 05:48 -1.30743 -163.77931 36868 ft 489 kts 48°
2026-05-07 05:48 -1.26267 -163.72818 36869 ft 489 kts 47°
2026-05-07 05:49 -1.21795 -163.67707 36869 ft 488 kts 48°
2026-05-07 05:49 -1.17331 -163.62604 36869 ft 488 kts 47°
2026-05-07 05:50 -1.12863 -163.57496 36868 ft 488 kts 47°
2026-05-07 05:50 -1.08397 -163.52392 36870 ft 487 kts 47°
2026-05-07 05:51 -1.03934 -163.47292 36869 ft 487 kts 47°
2026-05-07 05:51 -0.99470 -163.42192 36869 ft 487 kts 47°
2026-05-07 05:52 -0.95038 -163.37129 36869 ft 487 kts 47°
2026-05-07 05:52 -0.90580 -163.32035 36870 ft 487 kts 47°
2026-05-07 05:53 -0.86121 -163.26941 36870 ft 487 kts 47°
2026-05-07 05:53 -0.81665 -163.21853 36868 ft 486 kts 47°
2026-05-07 05:54 -0.77217 -163.16772 36869 ft 486 kts 47°
2026-05-07 05:54 -0.72766 -163.11686 36868 ft 486 kts 47°
2026-05-07 05:55 -0.68314 -163.06599 36868 ft 486 kts 47°
2026-05-07 05:55 -0.63859 -163.01511 36868 ft 486 kts 47°
2026-05-07 05:56 -0.59406 -162.96424 36869 ft 486 kts 47°
2026-05-07 05:56 -0.54955 -162.91339 36868 ft 486 kts 47°
2026-05-07 05:57 -0.50506 -162.86257 36869 ft 486 kts 47°
2026-05-07 05:57 -0.46062 -162.81180 36869 ft 486 kts 47°
2026-05-07 05:58 -0.41614 -162.76099 36869 ft 486 kts 47°
2026-05-07 05:58 -0.37164 -162.71020 36869 ft 486 kts 47°
2026-05-07 05:59 -0.32715 -162.65938 36869 ft 485 kts 47°
2026-05-07 05:59 -0.28303 -162.60898 36869 ft 485 kts 47°
2026-05-07 06:00 -0.23857 -162.55821 36869 ft 485 kts 47°
2026-05-07 06:00 -0.19412 -162.50746 36869 ft 485 kts 47°
2026-05-07 06:01 -0.14971 -162.45674 36869 ft 485 kts 47°
2026-05-07 06:01 -0.10527 -162.40598 36870 ft 485 kts 47°
2026-05-07 06:02 -0.06085 -162.35527 36869 ft 485 kts 47°
2026-05-07 06:02 -0.01642 -162.30451 36869 ft 485 kts 47°
2026-05-07 06:03 0.02800 -162.25378 36869 ft 485 kts 47°
2026-05-07 06:03 0.07238 -162.20314 36869 ft 484 kts 47°
2026-05-07 06:04 0.11672 -162.15247 36869 ft 484 kts 47°
2026-05-07 06:04 0.15354 -162.11039 36869 ft 484 kts 47°
2026-05-07 06:05 0.19790 -162.05972 36869 ft 484 kts 47°
2026-05-07 06:05 0.24223 -162.00909 36869 ft 484 kts 47°
2026-05-07 06:06 0.28657 -161.95850 36869 ft 484 kts 47°
2026-05-07 06:06 0.33093 -161.90784 36868 ft 484 kts 47°
2026-05-07 06:07 0.37526 -161.85718 36868 ft 484 kts 47°
2026-05-07 06:07 0.41960 -161.80656 36870 ft 484 kts 47°
2026-05-07 06:08 0.46392 -161.75594 36869 ft 484 kts 47°
2026-05-07 06:08 0.50822 -161.70532 36869 ft 484 kts 47°
2026-05-07 06:09 0.55250 -161.65472 36869 ft 483 kts 47°
2026-05-07 06:09 0.59678 -161.60414 36869 ft 483 kts 47°
2026-05-07 06:10 0.64101 -161.55362 36869 ft 483 kts 47°
2026-05-07 06:10 0.68526 -161.50308 36867 ft 483 kts 47°
2026-05-07 06:11 0.72920 -161.45288 36860 ft 483 kts 47°
2026-05-07 06:11 0.77330 -161.40249 36860 ft 483 kts 47°
2026-05-07 06:12 0.81751 -161.35198 36860 ft 483 kts 47°
2026-05-07 06:12 0.86166 -161.30156 36861 ft 482 kts 47°
2026-05-07 06:13 0.90586 -161.25111 36860 ft 482 kts 47°
2026-05-07 06:13 0.95007 -161.20060 36859 ft 482 kts 47°
2026-05-07 06:14 0.99420 -161.15016 36859 ft 482 kts 47°
2026-05-07 06:14 1.03836 -161.09967 36860 ft 482 kts 47°
2026-05-07 06:15 1.08251 -161.04921 36859 ft 482 kts 47°
2026-05-07 06:15 1.12667 -160.99876 36860 ft 482 kts 47°
2026-05-07 06:16 1.17082 -160.94832 36860 ft 482 kts 47°
2026-05-07 06:16 1.21498 -160.89787 36860 ft 482 kts 47°
2026-05-07 06:17 1.25907 -160.84745 36860 ft 482 kts 47°
2026-05-07 06:17 1.30323 -160.79698 36860 ft 482 kts 47°
2026-05-07 06:18 1.34711 -160.74681 36860 ft 482 kts 47°
2026-05-07 06:18 1.39150 -160.69604 36860 ft 482 kts 47°
2026-05-07 06:19 1.43526 -160.64603 36859 ft 482 kts 47°
2026-05-07 06:19 1.47935 -160.59561 36860 ft 482 kts 47°
2026-05-07 06:20 1.52346 -160.54519 36861 ft 482 kts 47°
2026-05-07 06:20 1.56766 -160.49463 36891 ft 483 kts 47°
2026-05-07 06:21 1.61194 -160.44400 36888 ft 484 kts 47°
2026-05-07 06:21 1.65622 -160.39335 36884 ft 484 kts 47°
2026-05-07 06:22 1.70051 -160.34273 36889 ft 484 kts 47°
2026-05-07 06:22 1.76693 -160.26674 36889 ft 484 kts 47°
2026-05-07 06:23 1.81128 -160.21601 36889 ft 484 kts 47°
2026-05-07 06:23 1.85557 -160.16535 36889 ft 484 kts 47°
2026-05-07 06:24 1.89987 -160.11467 36889 ft 484 kts 47°
2026-05-07 06:24 1.94416 -160.06400 36889 ft 484 kts 47°
2026-05-07 06:25 1.98845 -160.01334 36889 ft 484 kts 47°
2026-05-07 06:25 2.03315 -159.96304 36885 ft 484 kts 46°
2026-05-07 06:26 2.07888 -159.91372 36889 ft 483 kts 46°
2026-05-07 06:26 2.12466 -159.86447 36888 ft 483 kts 46°
2026-05-07 06:27 2.17032 -159.81507 36888 ft 484 kts 46°
2026-05-07 06:27 2.21585 -159.76554 36889 ft 484 kts 46°
2026-05-07 06:28 2.26109 -159.71632 36888 ft 484 kts 46°
2026-05-07 06:28 2.30661 -159.66683 36891 ft 484 kts 46°
2026-05-07 06:29 2.35217 -159.61727 36886 ft 484 kts 46°
2026-05-07 06:29 2.39776 -159.56770 36886 ft 484 kts 46°
2026-05-07 06:30 2.44337 -159.51811 36887 ft 484 kts 46°
2026-05-07 06:30 2.48899 -159.46848 36887 ft 484 kts 46°
2026-05-07 06:31 2.53462 -159.41882 36883 ft 484 kts 46°
2026-05-07 06:31 2.58022 -159.36922 36890 ft 485 kts 46°
2026-05-07 06:32 2.62583 -159.31958 36887 ft 484 kts 46°
2026-05-07 06:32 2.67140 -159.26997 36888 ft 485 kts 46°
2026-05-07 06:33 2.71704 -159.22026 36885 ft 485 kts 46°
2026-05-07 06:33 2.76270 -159.17057 36884 ft 485 kts 46°
2026-05-07 06:34 2.80836 -159.12087 36892 ft 485 kts 46°
2026-05-07 06:34 2.85407 -159.07110 36889 ft 486 kts 46°
2026-05-07 06:35 2.89951 -159.02164 36886 ft 486 kts 46°
2026-05-07 06:35 2.94523 -158.97185 36890 ft 486 kts 46°
2026-05-07 06:36 2.99097 -158.92204 36892 ft 486 kts 46°
2026-05-07 06:36 3.03698 -158.87193 36882 ft 486 kts 46°
2026-05-07 06:37 3.08239 -158.82241 36888 ft 486 kts 46°
2026-05-07 06:37 3.12812 -158.77257 36887 ft 486 kts 46°
2026-05-07 06:38 3.17388 -158.72272 36886 ft 486 kts 46°
2026-05-07 06:38 3.21963 -158.67282 36882 ft 487 kts 46°
2026-05-07 06:39 3.26540 -158.62294 36892 ft 487 kts 46°
2026-05-07 06:39 3.31126 -158.57296 36886 ft 487 kts 46°
2026-05-07 06:40 3.35706 -158.52301 36887 ft 487 kts 46°
2026-05-07 06:40 3.40283 -158.47309 36886 ft 487 kts 46°
2026-05-07 06:41 3.44867 -158.42311 36886 ft 487 kts 46°
2026-05-07 06:41 3.49448 -158.37312 36884 ft 487 kts 46°
2026-05-07 06:42 3.54032 -158.32312 36889 ft 487 kts 46°
2026-05-07 06:42 3.58616 -158.27309 36890 ft 487 kts 46°
2026-05-07 06:43 3.63197 -158.22308 36887 ft 487 kts 46°
2026-05-07 06:43 3.67782 -158.17302 36889 ft 487 kts 46°
2026-05-07 06:44 3.72368 -158.12296 36886 ft 488 kts 46°
2026-05-07 06:44 3.76949 -158.07295 36885 ft 488 kts 46°
2026-05-07 06:45 3.81534 -158.02288 36893 ft 488 kts 46°
2026-05-07 06:45 3.86092 -157.97313 36886 ft 488 kts 46°
2026-05-07 06:46 3.90675 -157.92302 36888 ft 488 kts 46°
2026-05-07 06:46 3.95256 -157.87292 36886 ft 488 kts 46°
2026-05-07 06:47 3.99839 -157.82283 36888 ft 488 kts 46°
2026-05-07 06:47 4.04423 -157.77273 36888 ft 488 kts 46°
2026-05-07 06:48 4.09007 -157.72262 36889 ft 488 kts 46°
2026-05-07 06:48 4.13585 -157.67256 36888 ft 488 kts 46°
2026-05-07 06:49 4.18168 -157.62244 36882 ft 488 kts 46°
2026-05-07 06:49 4.22751 -157.57229 36886 ft 488 kts 46°
2026-05-07 06:50 4.27338 -157.52211 36883 ft 488 kts 46°
2026-05-07 06:50 4.31922 -157.47195 36887 ft 488 kts 46°
2026-05-07 06:51 4.36507 -157.42176 36893 ft 488 kts 46°
2026-05-07 06:51 4.41095 -157.37153 36896 ft 488 kts 46°
2026-05-07 06:52 4.45684 -157.32129 36905 ft 488 kts 46°
2026-05-07 06:52 4.49494 -157.27958 36895 ft 489 kts 46°
2026-05-07 06:53 4.54086 -157.22928 36895 ft 489 kts 46°
2026-05-07 06:53 4.58678 -157.17897 36904 ft 489 kts 46°
2026-05-07 06:54 4.63266 -157.12867 36894 ft 489 kts 46°
2026-05-07 06:54 4.67857 -157.07838 36897 ft 489 kts 46°
2026-05-07 06:55 4.72451 -157.02803 36894 ft 489 kts 46°
2026-05-07 06:55 4.77040 -156.97768 36903 ft 490 kts 46°
2026-05-07 06:56 4.81605 -156.92760 36896 ft 490 kts 46°
2026-05-07 06:56 4.86232 -156.87684 36893 ft 490 kts 46°
2026-05-07 06:57 4.90798 -156.82673 36894 ft 490 kts 46°
2026-05-07 06:57 4.95394 -156.77628 36894 ft 490 kts 46°
2026-05-07 06:58 4.99993 -156.72580 36901 ft 490 kts 46°
2026-05-07 06:58 5.04594 -156.67531 36914 ft 490 kts 46°
2026-05-07 06:59 5.09223 -156.62446 36903 ft 490 kts 46°
2026-05-07 06:59 5.13819 -156.57399 36912 ft 490 kts 46°
2026-05-07 07:00 5.18391 -156.52375 36903 ft 490 kts 46°
2026-05-07 07:00 5.22992 -156.47318 36908 ft 491 kts 46°
2026-05-07 07:01 5.27591 -156.42263 36905 ft 491 kts 46°
2026-05-07 07:01 5.32197 -156.37199 36902 ft 491 kts 46°
2026-05-07 07:02 5.36797 -156.32138 36903 ft 491 kts 46°
2026-05-07 07:02 5.41405 -156.27073 36900 ft 491 kts 46°
2026-05-07 07:03 5.46008 -156.22006 36908 ft 491 kts 46°
2026-05-07 07:03 5.50615 -156.16936 36903 ft 491 kts 46°
2026-05-07 07:04 5.55222 -156.11865 36911 ft 492 kts 46°
2026-05-07 07:04 5.59832 -156.06788 36905 ft 492 kts 46°
2026-05-07 07:05 5.64440 -156.01713 36907 ft 492 kts 46°
2026-05-07 07:05 5.69050 -155.96633 36908 ft 492 kts 46°
2026-05-07 07:06 5.73662 -155.91551 36910 ft 492 kts 46°
2026-05-07 07:06 5.78274 -155.86467 36914 ft 492 kts 46°
2026-05-07 07:07 5.82886 -155.81383 36910 ft 492 kts 46°
2026-05-07 07:07 5.87494 -155.76301 36929 ft 492 kts 46°
2026-05-07 07:08 5.92104 -155.71217 36914 ft 492 kts 46°
2026-05-07 07:08 5.96715 -155.66131 36929 ft 492 kts 46°
2026-05-07 07:09 6.01323 -155.61044 36930 ft 492 kts 46°
2026-05-07 07:09 6.05928 -155.55960 36928 ft 493 kts 46°
2026-05-07 07:10 6.10509 -155.50901 36928 ft 493 kts 46°
2026-05-07 07:10 6.15120 -155.45805 36929 ft 493 kts 46°
2026-05-07 07:11 6.19735 -155.40706 36927 ft 493 kts 46°
2026-05-07 07:11 6.24349 -155.35606 36928 ft 493 kts 46°
2026-05-07 07:12 6.28967 -155.30500 36935 ft 494 kts 46°
2026-05-07 07:12 6.33586 -155.25393 36934 ft 494 kts 46°
2026-05-07 07:13 6.38204 -155.20287 36935 ft 494 kts 46°
2026-05-07 07:13 6.42827 -155.15174 36933 ft 494 kts 47°
2026-05-07 07:14 6.47448 -155.10053 36935 ft 494 kts 47°
2026-05-07 07:14 6.52076 -155.04932 36933 ft 495 kts 47°
2026-05-07 07:15 6.56704 -154.99808 36909 ft 495 kts 47°
2026-05-07 07:15 6.61332 -154.94681 36928 ft 495 kts 47°
2026-05-07 07:16 6.65931 -154.89585 36914 ft 495 kts 47°
2026-05-07 07:16 6.70562 -154.84453 36929 ft 496 kts 47°
2026-05-07 07:17 6.75193 -154.79318 36909 ft 496 kts 47°
2026-05-07 07:17 6.79828 -154.74176 36928 ft 496 kts 47°
2026-05-07 07:18 6.84465 -154.69033 36929 ft 496 kts 47°
2026-05-07 07:18 6.89104 -154.63883 36928 ft 496 kts 47°
2026-05-07 07:19 6.93743 -154.58730 36928 ft 497 kts 47°
2026-05-07 07:19 6.98386 -154.53573 36928 ft 497 kts 47°
2026-05-07 07:20 7.03029 -154.48416 36930 ft 497 kts 47°
2026-05-07 07:20 7.07677 -154.43252 36933 ft 498 kts 47°
2026-05-07 07:21 7.12325 -154.38087 36934 ft 498 kts 47°
2026-05-07 07:21 7.16981 -154.32910 36933 ft 499 kts 47°
2026-05-07 07:22 7.21640 -154.27728 36933 ft 499 kts 47°
2026-05-07 07:22 7.26301 -154.22540 36933 ft 500 kts 47°
2026-05-07 07:23 7.30937 -154.17378 36935 ft 500 kts 47°
2026-05-07 07:23 7.35609 -154.12179 36934 ft 500 kts 47°
2026-05-07 07:24 7.40283 -154.06974 36934 ft 501 kts 47°
2026-05-07 07:24 7.44964 -154.01759 36942 ft 502 kts 47°
2026-05-07 07:25 7.51987 -153.93932 36943 ft 503 kts 47°
2026-05-07 07:26 7.56683 -153.88695 36943 ft 504 kts 47°
2026-05-07 07:26 7.61380 -153.83457 36944 ft 504 kts 47°
2026-05-07 07:27 7.66075 -153.78215 36944 ft 504 kts 47°
2026-05-07 07:27 7.70771 -153.72971 36943 ft 504 kts 47°
2026-05-07 07:28 7.75467 -153.67726 36944 ft 504 kts 47°
2026-05-07 07:28 7.80163 -153.62481 36943 ft 504 kts 47°
2026-05-07 07:29 7.84853 -153.57240 36950 ft 504 kts 47°
2026-05-07 07:29 7.89522 -153.52021 36952 ft 504 kts 47°
2026-05-07 07:30 7.94210 -153.46777 36953 ft 504 kts 47°
2026-05-07 07:30 7.98899 -153.41530 36953 ft 503 kts 47°
2026-05-07 07:31 8.03588 -153.36282 36953 ft 504 kts 47°
2026-05-07 07:31 8.08294 -153.31013 36952 ft 506 kts 47°
2026-05-07 07:32 8.13006 -153.25737 36953 ft 506 kts 47°
2026-05-07 07:32 8.17722 -153.20454 36953 ft 506 kts 46°
2026-05-07 07:33 8.22433 -153.15174 36957 ft 507 kts 47°
2026-05-07 07:33 8.27148 -153.09885 36962 ft 507 kts 47°
2026-05-07 07:34 8.31868 -153.04589 36962 ft 508 kts 46°
2026-05-07 07:34 8.36592 -152.99288 36962 ft 508 kts 47°
2026-05-07 07:35 8.41316 -152.93984 36962 ft 508 kts 46°
2026-05-07 07:35 8.46039 -152.88679 36962 ft 508 kts 46°
2026-05-07 07:36 8.50767 -152.83370 36962 ft 508 kts 46°
2026-05-07 07:36 8.55494 -152.78058 36962 ft 508 kts 46°
2026-05-07 07:37 8.60215 -152.72748 36963 ft 508 kts 46°
2026-05-07 07:37 8.64945 -152.67427 36971 ft 509 kts 46°
2026-05-07 07:38 8.69674 -152.62105 36972 ft 509 kts 46°
2026-05-07 07:38 8.74406 -152.56778 36971 ft 509 kts 46°
2026-05-07 07:39 8.79141 -152.51445 36971 ft 509 kts 46°
2026-05-07 07:39 8.83876 -152.46113 36972 ft 510 kts 46°
2026-05-07 07:40 8.88614 -152.40772 36974 ft 510 kts 46°
2026-05-07 07:40 8.93355 -152.35424 36972 ft 511 kts 46°
2026-05-07 07:41 8.97295 -152.30977 36972 ft 511 kts 46°
2026-05-07 07:41 9.02044 -152.25617 36982 ft 512 kts 46°
2026-05-07 07:42 9.06795 -152.20255 36981 ft 512 kts 46°
2026-05-07 07:42 9.11549 -152.14886 36982 ft 513 kts 46°
2026-05-07 07:43 9.16308 -152.09509 36982 ft 513 kts 46°
2026-05-07 07:43 9.21069 -152.04126 36982 ft 513 kts 46°
2026-05-07 07:44 9.25830 -151.98741 36982 ft 514 kts 46°
2026-05-07 07:44 9.30573 -151.93374 36978 ft 515 kts 46°
2026-05-07 07:45 9.35379 -151.87932 36979 ft 515 kts 46°
2026-05-07 07:45 9.40129 -151.82552 36984 ft 516 kts 46°
2026-05-07 07:46 9.44949 -151.77094 36990 ft 517 kts 46°
2026-05-07 07:46 9.49738 -151.71665 36990 ft 517 kts 46°
2026-05-07 07:47 9.54527 -151.66234 36989 ft 517 kts 46°
2026-05-07 07:47 9.59283 -151.60838 36990 ft 517 kts 46°
2026-05-07 07:48 9.64097 -151.55374 36989 ft 517 kts 46°
2026-05-07 07:48 9.68856 -151.49969 36990 ft 518 kts 46°
2026-05-07 07:49 9.73645 -151.44528 36994 ft 517 kts 46°
2026-05-07 07:49 9.78431 -151.39090 36999 ft 517 kts 46°
2026-05-07 07:50 9.83215 -151.33651 36999 ft 517 kts 46°
2026-05-07 07:50 9.87996 -151.28210 36998 ft 516 kts 46°
2026-05-07 07:51 9.92774 -151.22771 36999 ft 516 kts 46°
2026-05-07 07:51 9.97551 -151.17330 36999 ft 517 kts 46°
2026-05-07 07:52 10.02326 -151.11888 36998 ft 517 kts 46°
2026-05-07 07:52 10.07116 -151.06429 36999 ft 518 kts 46°
2026-05-07 07:53 10.11911 -151.00962 36999 ft 519 kts 46°
2026-05-07 07:53 10.16708 -150.95489 37000 ft 519 kts 46°
2026-05-07 07:54 10.21508 -150.90011 37009 ft 519 kts 46°
2026-05-07 07:54 10.26307 -150.84532 37008 ft 519 kts 46°
2026-05-07 07:55 10.31066 -150.79090 37008 ft 518 kts 46°
2026-05-07 07:55 10.35855 -150.73615 37008 ft 518 kts 46°
2026-05-07 07:56 10.40671 -150.68106 37008 ft 518 kts 46°
2026-05-07 07:56 10.45458 -150.62627 37008 ft 518 kts 46°
2026-05-07 07:57 10.50245 -150.57146 37008 ft 518 kts 46°
2026-05-07 07:57 10.55000 -150.51699 37008 ft 519 kts 46°
2026-05-07 07:58 10.59789 -150.46212 37008 ft 519 kts 46°
2026-05-07 07:58 10.64574 -150.40725 37008 ft 518 kts 47°
2026-05-07 07:59 10.69352 -150.35245 37017 ft 518 kts 47°
2026-05-07 07:59 10.74126 -150.29764 37017 ft 518 kts 47°
2026-05-07 08:00 10.78899 -150.24282 37019 ft 518 kts 47°
2026-05-07 08:00 10.83672 -150.18796 37017 ft 518 kts 47°
2026-05-07 08:01 10.88449 -150.13305 37019 ft 518 kts 47°
2026-05-07 08:01 10.93224 -150.07811 37017 ft 518 kts 47°
2026-05-07 08:02 10.97994 -150.02322 37017 ft 518 kts 47°
2026-05-07 08:02 11.02842 -149.96899 37018 ft 517 kts 43°
2026-05-07 08:03 11.08027 -149.91840 37017 ft 516 kts 41°
2026-05-07 08:03 11.13257 -149.86836 37017 ft 516 kts 41°
2026-05-07 08:04 11.18443 -149.81774 37017 ft 517 kts 42°
2026-05-07 08:04 11.23600 -149.76672 37029 ft 517 kts 42°
2026-05-07 08:05 11.28748 -149.71561 37026 ft 517 kts 42°
2026-05-07 08:05 11.33896 -149.66450 37033 ft 517 kts 42°
2026-05-07 08:06 11.39039 -149.61349 37033 ft 516 kts 42°
2026-05-07 08:06 11.44186 -149.56244 37033 ft 516 kts 42°
2026-05-07 08:07 11.49329 -149.51137 37036 ft 516 kts 42°
2026-05-07 08:07 11.54470 -149.46026 37042 ft 516 kts 42°
2026-05-07 08:08 11.59609 -149.40916 37033 ft 516 kts 42°
2026-05-07 08:08 11.64747 -149.35806 37042 ft 516 kts 42°
2026-05-07 08:09 11.69851 -149.30728 37043 ft 516 kts 42°
2026-05-07 08:09 11.74986 -149.25614 37046 ft 516 kts 42°
2026-05-07 08:10 11.80117 -149.20502 37042 ft 516 kts 42°
2026-05-07 08:10 11.85257 -149.15377 37046 ft 517 kts 42°
2026-05-07 08:11 11.90401 -149.10245 37045 ft 517 kts 42°
2026-05-07 08:11 11.95542 -149.05115 37044 ft 517 kts 42°
2026-05-07 08:12 12.00676 -148.99988 37045 ft 517 kts 42°
2026-05-07 08:12 12.05821 -148.94847 37046 ft 518 kts 42°
2026-05-07 08:13 12.10984 -148.89688 37047 ft 519 kts 42°
2026-05-07 08:13 12.16147 -148.84522 37046 ft 519 kts 42°
2026-05-07 08:14 12.21309 -148.79355 37047 ft 519 kts 42°
2026-05-07 08:14 12.26470 -148.74186 37047 ft 519 kts 42°
2026-05-07 08:15 12.31633 -148.69012 37042 ft 520 kts 42°
2026-05-07 08:15 12.36795 -148.63837 37052 ft 520 kts 42°
2026-05-07 08:16 12.41955 -148.58662 37054 ft 520 kts 42°
2026-05-07 08:16 12.47120 -148.53477 37054 ft 520 kts 42°
2026-05-07 08:17 12.52286 -148.48292 37056 ft 520 kts 42°
2026-05-07 08:17 12.57414 -148.43136 37057 ft 520 kts 42°
2026-05-07 08:18 12.62575 -148.37944 37052 ft 520 kts 42°
2026-05-07 08:18 12.67736 -148.32753 37054 ft 520 kts 42°
2026-05-07 08:19 12.72893 -148.27561 37058 ft 520 kts 42°
2026-05-07 08:19 12.78047 -148.22369 37057 ft 520 kts 42°
2026-05-07 08:20 12.83198 -148.17176 37062 ft 520 kts 42°
2026-05-07 08:20 12.88358 -148.11972 37063 ft 520 kts 42°
2026-05-07 08:21 12.93517 -148.06765 37063 ft 521 kts 42°
2026-05-07 08:21 12.98680 -148.01554 37063 ft 521 kts 42°
2026-05-07 08:22 13.03843 -147.96338 37063 ft 521 kts 42°
2026-05-07 08:22 13.09002 -147.91119 37065 ft 521 kts 42°
2026-05-07 08:23 13.14160 -147.85901 37065 ft 521 kts 42°
2026-05-07 08:23 13.19314 -147.80683 37066 ft 521 kts 42°
2026-05-07 08:24 13.24467 -147.75464 37062 ft 521 kts 42°
2026-05-07 08:24 13.29626 -147.70233 37072 ft 521 kts 42°
2026-05-07 08:25 13.34782 -147.65002 37072 ft 521 kts 42°
2026-05-07 08:25 13.39911 -147.59799 37073 ft 522 kts 42°
2026-05-07 08:26 13.47646 -147.51936 37072 ft 522 kts 42°
2026-05-07 08:26 13.52808 -147.46692 37072 ft 522 kts 42°
2026-05-07 08:27 13.57967 -147.41446 37072 ft 522 kts 42°
2026-05-07 08:27 13.63124 -147.36197 37072 ft 522 kts 42°
2026-05-07 08:28 13.68280 -147.30947 37073 ft 521 kts 42°
2026-05-07 08:28 13.73431 -147.25697 37072 ft 521 kts 42°
2026-05-07 08:29 13.78545 -147.20480 37073 ft 521 kts 42°
2026-05-07 08:29 13.82854 -147.16085 37073 ft 521 kts 42°
2026-05-07 08:30 13.88828 -147.09986 37072 ft 520 kts 42°
2026-05-07 08:30 13.93135 -147.05586 37073 ft 520 kts 42°
2026-05-07 08:31 13.98273 -147.00333 37072 ft 521 kts 42°
2026-05-07 08:31 14.03376 -146.95111 37072 ft 521 kts 41°
2026-05-07 08:32 14.08514 -146.89851 37073 ft 521 kts 41°
2026-05-07 08:32 14.13654 -146.84583 37073 ft 521 kts 41°
2026-05-07 08:33 14.18793 -146.79314 37074 ft 521 kts 41°
2026-05-07 08:33 14.23930 -146.74046 37073 ft 521 kts 41°
2026-05-07 08:34 14.29066 -146.68774 37072 ft 521 kts 41°
2026-05-07 08:34 14.34197 -146.63504 37072 ft 520 kts 41°
2026-05-07 08:35 14.39324 -146.58233 37074 ft 520 kts 41°
2026-05-07 08:35 14.44448 -146.52962 37072 ft 520 kts 41°
2026-05-07 08:36 14.49566 -146.47693 37073 ft 520 kts 41°
2026-05-07 08:36 14.54689 -146.42416 37072 ft 520 kts 41°
2026-05-07 08:37 14.59809 -146.37141 37072 ft 520 kts 41°
2026-05-07 08:37 14.64928 -146.31861 37072 ft 520 kts 41°
2026-05-07 08:38 14.70046 -146.26576 37083 ft 520 kts 41°
2026-05-07 08:38 14.75163 -146.21291 37082 ft 520 kts 41°
2026-05-07 08:39 14.80277 -146.16004 37081 ft 520 kts 41°
2026-05-07 08:39 14.85356 -146.10751 37083 ft 520 kts 42°
2026-05-07 08:40 14.90175 -146.05174 37080 ft 523 kts 50°
2026-05-07 08:40 14.94530 -145.99144 37082 ft 524 kts 51°
2026-05-07 08:41 14.98804 -145.93052 37082 ft 523 kts 51°
2026-05-07 08:41 15.03053 -145.86987 37081 ft 522 kts 51°
2026-05-07 08:42 15.07294 -145.80951 37081 ft 522 kts 51°
2026-05-07 08:42 15.11565 -145.74877 37082 ft 522 kts 51°
2026-05-07 08:43 15.15838 -145.68805 37082 ft 522 kts 51°
2026-05-07 08:43 15.20109 -145.62728 37082 ft 522 kts 51°
2026-05-07 08:44 15.24372 -145.56653 37083 ft 522 kts 51°
2026-05-07 08:44 15.28635 -145.50571 37082 ft 522 kts 51°
2026-05-07 08:45 15.32894 -145.44489 37081 ft 521 kts 51°
2026-05-07 08:45 15.37153 -145.38404 37082 ft 521 kts 51°
2026-05-07 08:46 15.41412 -145.32320 37082 ft 521 kts 51°
2026-05-07 08:46 15.45668 -145.26231 37082 ft 521 kts 51°
2026-05-07 08:47 15.49922 -145.20141 37082 ft 521 kts 51°
2026-05-07 08:47 15.54175 -145.14046 37081 ft 521 kts 51°
2026-05-07 08:48 15.58420 -145.07956 37081 ft 521 kts 51°
2026-05-07 08:48 15.62669 -145.01860 37082 ft 521 kts 51°
2026-05-07 08:49 15.66886 -144.95801 37082 ft 521 kts 51°
2026-05-07 08:49 15.71130 -144.89701 37082 ft 521 kts 51°
2026-05-07 08:50 15.75375 -144.83595 37082 ft 522 kts 51°
2026-05-07 08:50 15.79620 -144.77484 37082 ft 522 kts 51°
2026-05-07 08:51 15.83862 -144.71371 37083 ft 522 kts 51°
2026-05-07 08:51 15.88100 -144.65258 37081 ft 521 kts 51°
2026-05-07 08:52 15.92329 -144.59154 37081 ft 521 kts 51°
2026-05-07 08:52 15.96560 -144.53038 37080 ft 521 kts 51°
2026-05-07 08:53 16.00791 -144.46923 37082 ft 521 kts 51°
2026-05-07 08:53 16.05021 -144.40802 37081 ft 522 kts 51°
2026-05-07 08:54 16.09253 -144.34670 37083 ft 522 kts 51°
2026-05-07 08:54 16.13459 -144.28575 37083 ft 522 kts 51°
2026-05-07 08:55 16.17687 -144.22444 37081 ft 521 kts 51°
2026-05-07 08:55 16.21910 -144.16313 37082 ft 521 kts 51°
2026-05-07 08:56 16.26125 -144.10188 37082 ft 521 kts 51°
2026-05-07 08:56 16.30345 -144.04053 37081 ft 521 kts 51°
2026-05-07 08:57 16.34563 -143.97913 37083 ft 522 kts 51°
2026-05-07 08:57 16.38785 -143.91762 37083 ft 522 kts 51°
2026-05-07 08:58 16.43004 -143.85610 37081 ft 522 kts 51°
2026-05-07 08:58 16.47222 -143.79455 37082 ft 522 kts 51°
2026-05-07 08:59 16.51441 -143.73297 37083 ft 522 kts 51°
2026-05-07 08:59 16.55659 -143.67127 37083 ft 523 kts 51°
2026-05-07 09:00 16.59871 -143.60961 37081 ft 523 kts 51°
2026-05-07 09:00 16.64092 -143.54781 37083 ft 523 kts 51°
2026-05-07 09:01 16.68312 -143.48597 37082 ft 523 kts 51°
2026-05-07 09:01 16.72533 -143.42404 37083 ft 524 kts 51°
2026-05-07 09:02 16.76753 -143.36204 37083 ft 524 kts 51°
2026-05-07 09:02 16.80971 -143.30006 37082 ft 524 kts 51°
2026-05-07 09:03 16.85195 -143.23796 37082 ft 525 kts 51°
2026-05-07 09:03 16.89393 -143.17616 37082 ft 525 kts 51°
2026-05-07 09:04 16.93610 -143.11402 37081 ft 524 kts 51°
2026-05-07 09:04 16.97827 -143.05179 37082 ft 525 kts 51°
2026-05-07 09:05 17.02049 -142.98950 37082 ft 525 kts 51°
2026-05-07 09:05 17.06270 -142.92714 37082 ft 525 kts 51°
2026-05-07 09:06 17.10491 -142.86472 37082 ft 526 kts 51°
2026-05-07 09:06 17.14710 -142.80227 37083 ft 526 kts 51°
2026-05-07 09:07 17.18930 -142.73975 37082 ft 526 kts 51°
2026-05-07 09:07 17.23154 -142.67714 37081 ft 527 kts 51°
2026-05-07 09:08 17.27372 -142.61452 37082 ft 527 kts 51°
2026-05-07 09:08 17.31594 -142.55180 37082 ft 527 kts 51°
2026-05-07 09:09 17.35814 -142.48907 37082 ft 527 kts 51°
2026-05-07 09:09 17.40037 -142.42622 37084 ft 528 kts 51°
2026-05-07 09:10 17.44260 -142.36331 37082 ft 528 kts 51°
2026-05-07 09:10 17.48483 -142.30033 37082 ft 529 kts 51°
2026-05-07 09:11 17.52681 -142.23767 37083 ft 529 kts 51°
2026-05-07 09:11 17.56748 -142.17690 37082 ft 529 kts 51°
2026-05-07 09:12 17.60975 -142.11371 37083 ft 529 kts 51°
2026-05-07 09:12 17.65200 -142.05049 37082 ft 529 kts 51°
2026-05-07 09:13 17.69451 -141.98680 37081 ft 529 kts 51°
2026-05-07 09:13 17.73638 -141.92401 37081 ft 529 kts 51°
2026-05-07 09:14 17.77857 -141.86071 37082 ft 529 kts 51°
2026-05-07 09:14 17.82075 -141.79734 37082 ft 530 kts 51°
2026-05-07 09:15 17.86291 -141.73393 37082 ft 530 kts 51°
2026-05-07 09:15 17.90501 -141.67052 37082 ft 529 kts 51°
2026-05-07 09:16 17.94708 -141.60716 37082 ft 529 kts 51°
2026-05-07 09:16 17.98916 -141.54372 37083 ft 530 kts 51°
2026-05-07 09:17 18.03117 -141.48031 37082 ft 529 kts 51°
2026-05-07 09:17 18.07319 -141.41679 37082 ft 529 kts 51°
2026-05-07 09:18 18.11521 -141.35324 37081 ft 529 kts 51°
2026-05-07 09:18 18.15718 -141.28968 37082 ft 529 kts 51°
2026-05-07 09:19 18.19910 -141.22617 37083 ft 528 kts 51°
2026-05-07 09:19 18.24095 -141.16264 37082 ft 529 kts 51°
2026-05-07 09:20 18.27566 -141.10995 37083 ft 525 kts 51°
2026-05-07 09:20 18.31708 -141.04701 37081 ft 522 kts 51°
2026-05-07 09:21 18.35837 -140.98423 37082 ft 522 kts 51°
2026-05-07 09:21 18.39966 -140.92136 37081 ft 522 kts 51°
2026-05-07 09:22 18.44100 -140.85836 37092 ft 523 kts 51°
2026-05-07 09:22 18.48225 -140.79537 37098 ft 522 kts 51°
2026-05-07 09:23 18.52345 -140.73247 37083 ft 521 kts 51°
2026-05-07 09:23 18.56463 -140.66956 37086 ft 521 kts 51°
2026-05-07 09:24 18.60576 -140.60666 37097 ft 522 kts 51°
2026-05-07 09:24 18.64691 -140.54360 37102 ft 522 kts 51°
2026-05-07 09:25 18.68806 -140.48052 37084 ft 522 kts 51°
2026-05-07 09:25 18.72918 -140.41741 37085 ft 522 kts 51°
2026-05-07 09:26 18.77000 -140.35465 37081 ft 522 kts 51°
2026-05-07 09:26 18.81110 -140.29141 37078 ft 523 kts 51°
2026-05-07 09:27 18.85221 -140.22817 37073 ft 522 kts 51°
2026-05-07 09:28 18.91377 -140.13332 37073 ft 522 kts 51°
2026-05-07 09:28 18.95481 -140.06999 37073 ft 522 kts 51°
2026-05-07 09:29 18.99454 -140.00859 37073 ft 523 kts 51°
2026-05-07 09:29 19.03746 -139.94701 37073 ft 519 kts 46°
2026-05-07 09:30 19.08366 -139.88845 37073 ft 518 kts 45°
2026-05-07 09:30 19.12980 -139.82982 37081 ft 519 kts 45°
2026-05-07 09:31 19.17543 -139.77059 37082 ft 520 kts 46°
2026-05-07 09:31 19.22081 -139.71106 37083 ft 520 kts 46°
2026-05-07 09:32 19.26578 -139.65189 37081 ft 519 kts 46°
2026-05-07 09:32 19.31106 -139.59233 37082 ft 519 kts 46°
2026-05-07 09:33 19.35629 -139.53278 37082 ft 519 kts 46°
2026-05-07 09:33 19.40156 -139.47314 37082 ft 519 kts 46°
2026-05-07 09:34 19.44682 -139.41345 37082 ft 519 kts 46°
2026-05-07 09:34 19.49207 -139.35373 37082 ft 520 kts 46°
2026-05-07 09:35 19.53731 -139.29394 37082 ft 520 kts 46°
2026-05-07 09:35 19.58255 -139.23411 37083 ft 520 kts 46°
2026-05-07 09:36 19.62777 -139.17425 37083 ft 520 kts 46°
2026-05-07 09:36 19.67297 -139.11434 37082 ft 520 kts 46°
2026-05-07 09:37 19.71816 -139.05439 37072 ft 520 kts 46°
2026-05-07 09:37 19.76331 -138.99443 37073 ft 520 kts 46°
2026-05-07 09:38 19.80849 -138.93437 37072 ft 521 kts 46°
2026-05-07 09:38 19.85371 -138.87420 37072 ft 521 kts 46°
2026-05-07 09:39 19.89890 -138.81400 37073 ft 521 kts 46°
2026-05-07 09:39 19.94404 -138.75381 37073 ft 521 kts 46°
2026-05-07 09:40 19.98924 -138.69350 37072 ft 522 kts 46°
2026-05-07 09:40 20.03441 -138.63311 37071 ft 521 kts 46°
2026-05-07 09:41 20.07950 -138.57279 37073 ft 521 kts 46°
2026-05-07 09:41 20.12456 -138.51244 37073 ft 522 kts 46°
2026-05-07 09:42 20.16923 -138.45262 37079 ft 521 kts 46°
2026-05-07 09:42 20.21398 -138.39260 37072 ft 521 kts 46°
2026-05-07 09:43 20.25932 -138.33169 37072 ft 521 kts 46°
2026-05-07 09:43 20.30433 -138.27113 37074 ft 522 kts 46°
2026-05-07 09:44 20.34908 -138.21086 37073 ft 522 kts 46°
2026-05-07 09:44 20.39418 -138.15023 37072 ft 522 kts 46°
2026-05-07 09:45 20.43919 -138.08949 37082 ft 521 kts 46°
2026-05-07 09:45 20.48406 -138.02882 37081 ft 521 kts 46°
2026-05-07 09:46 20.52898 -137.96810 37083 ft 522 kts 46°
2026-05-07 09:46 20.57392 -137.90734 37081 ft 521 kts 46°
2026-05-07 09:47 20.61876 -137.84660 37182 ft 521 kts 46°
2026-05-07 09:47 20.66354 -137.78596 37223 ft 520 kts 46°
2026-05-07 09:48 20.70831 -137.72521 37207 ft 520 kts 46°
2026-05-07 09:48 20.75294 -137.66454 37123 ft 518 kts 46°
2026-05-07 09:49 20.79742 -137.60396 37121 ft 518 kts 46°
2026-05-07 09:49 20.84185 -137.54345 37121 ft 517 kts 46°
2026-05-07 09:50 20.88621 -137.48302 37110 ft 516 kts 46°
2026-05-07 09:50 20.93045 -137.42266 37112 ft 515 kts 46°
2026-05-07 09:51 20.97461 -137.36239 37105 ft 515 kts 46°
2026-05-07 09:51 21.01864 -137.30218 37107 ft 514 kts 46°
2026-05-07 09:52 21.06266 -137.24195 37115 ft 513 kts 46°
2026-05-07 09:52 21.10635 -137.18210 37105 ft 513 kts 46°
2026-05-07 09:53 21.15028 -137.12189 37114 ft 512 kts 46°
2026-05-07 09:53 21.19413 -137.06163 37113 ft 513 kts 47°
2026-05-07 09:54 21.23796 -137.00130 37114 ft 512 kts 47°
2026-05-07 09:54 21.28169 -136.94114 37113 ft 511 kts 46°
2026-05-07 09:55 21.32530 -136.88105 37109 ft 511 kts 47°
2026-05-07 09:55 21.36896 -136.82087 37114 ft 511 kts 47°
2026-05-07 09:56 21.41246 -136.76075 37102 ft 509 kts 47°
2026-05-07 09:56 21.45588 -136.70067 37108 ft 510 kts 47°
2026-05-07 09:57 21.49932 -136.64052 37106 ft 509 kts 47°
2026-05-07 09:57 21.54273 -136.58047 37105 ft 509 kts 47°
2026-05-07 09:58 21.58605 -136.52043 37110 ft 508 kts 47°
2026-05-07 09:58 21.62929 -136.46035 37108 ft 508 kts 47°
2026-05-07 09:59 21.67250 -136.40034 37104 ft 507 kts 47°
2026-05-07 09:59 21.71533 -136.34074 37108 ft 507 kts 47°
2026-05-07 10:00 21.75835 -136.28076 37111 ft 506 kts 47°
2026-05-07 10:00 21.80133 -136.22086 37109 ft 505 kts 47°
2026-05-07 10:01 21.84413 -136.16110 37115 ft 504 kts 47°
2026-05-07 10:01 21.88693 -136.10128 37104 ft 504 kts 47°
2026-05-07 10:02 21.92966 -136.04149 37106 ft 504 kts 47°
2026-05-07 10:02 21.97236 -135.98170 37109 ft 503 kts 47°
2026-05-07 10:03 22.01503 -135.92188 37115 ft 504 kts 47°
2026-05-07 10:03 22.05767 -135.86201 37112 ft 503 kts 47°
2026-05-07 10:04 22.10028 -135.80215 37112 ft 503 kts 47°
2026-05-07 10:04 22.14285 -135.74221 37103 ft 503 kts 47°
2026-05-07 10:05 22.18539 -135.68232 37094 ft 503 kts 47°
2026-05-07 10:05 22.22786 -135.62248 37099 ft 503 kts 47°
2026-05-07 10:06 22.27030 -135.56254 37106 ft 502 kts 47°
2026-05-07 10:06 22.31243 -135.50296 37105 ft 502 kts 48°
2026-05-07 10:07 22.35479 -135.44305 37094 ft 501 kts 47°
2026-05-07 10:07 22.39707 -135.38316 37099 ft 501 kts 48°
2026-05-07 10:08 22.43928 -135.32329 37102 ft 501 kts 48°
2026-05-07 10:08 22.48145 -135.26345 37100 ft 500 kts 48°
2026-05-07 10:09 22.52347 -135.20369 37101 ft 500 kts 48°
2026-05-07 10:09 22.56550 -135.14383 37103 ft 499 kts 48°
2026-05-07 10:10 22.60041 -135.09413 37098 ft 499 kts 48°
2026-05-07 10:10 22.64236 -135.03437 37102 ft 498 kts 48°
2026-05-07 10:11 22.68426 -134.97462 37084 ft 498 kts 48°
2026-05-07 10:11 22.72603 -134.91494 37083 ft 498 kts 49°
2026-05-07 10:12 22.76782 -134.85512 37084 ft 498 kts 49°
2026-05-07 10:12 22.80960 -134.79528 37094 ft 498 kts 49°
2026-05-07 10:13 22.85136 -134.73541 37103 ft 498 kts 49°
2026-05-07 10:13 22.89304 -134.67555 37098 ft 497 kts 49°
2026-05-07 10:14 22.93462 -134.61578 37094 ft 496 kts 49°
2026-05-07 10:14 22.97618 -134.55601 37096 ft 496 kts 49°
2026-05-07 10:15 23.01763 -134.49623 37097 ft 495 kts 49°
2026-05-07 10:15 23.05907 -134.43653 37083 ft 495 kts 49°
2026-05-07 10:16 23.10040 -134.37685 37084 ft 494 kts 49°
2026-05-07 10:16 23.14168 -134.31720 37099 ft 493 kts 49°
2026-05-07 10:17 23.18286 -134.25761 37099 ft 492 kts 49°
2026-05-07 10:17 23.22394 -134.19806 37101 ft 492 kts 49°
2026-05-07 10:18 23.26490 -134.13862 37101 ft 491 kts 49°
2026-05-07 10:18 23.30583 -134.07916 37100 ft 490 kts 49°
2026-05-07 10:19 23.34669 -134.01976 37105 ft 490 kts 50°
2026-05-07 10:19 23.38746 -133.96042 37093 ft 489 kts 50°
2026-05-07 10:20 23.42815 -133.90114 37093 ft 489 kts 50°
2026-05-07 10:20 23.46880 -133.84184 37094 ft 488 kts 50°
2026-05-07 10:21 23.50938 -133.78253 37095 ft 488 kts 50°
2026-05-07 10:21 23.54993 -133.72324 37098 ft 488 kts 50°
2026-05-07 10:22 23.59042 -133.66396 37100 ft 487 kts 50°
2026-05-07 10:22 23.63080 -133.60477 37096 ft 487 kts 50°
2026-05-07 10:23 23.67119 -133.54548 37101 ft 487 kts 50°
2026-05-07 10:23 23.71130 -133.48654 37099 ft 487 kts 50°
2026-05-07 10:24 23.75168 -133.42714 37104 ft 487 kts 50°
2026-05-07 10:24 23.79205 -133.36770 37095 ft 487 kts 50°
2026-05-07 10:25 23.83238 -133.30823 37100 ft 487 kts 50°
2026-05-07 10:25 23.87268 -133.24871 37097 ft 487 kts 50°
2026-05-07 10:26 23.91291 -133.18926 37104 ft 487 kts 50°
2026-05-07 10:26 23.95312 -133.12975 37101 ft 487 kts 50°
2026-05-07 10:27 23.99335 -133.07017 37100 ft 487 kts 50°
2026-05-07 10:27 24.03353 -133.01055 37100 ft 485 kts 50°
2026-05-07 10:28 24.07336 -132.95137 37104 ft 481 kts 50°
2026-05-07 10:28 24.11303 -132.89235 37105 ft 481 kts 50°
2026-05-07 10:29 24.15239 -132.83379 37101 ft 480 kts 50°
2026-05-07 10:29 24.19195 -132.77484 37096 ft 480 kts 50°
2026-05-07 10:30 24.25142 -132.68605 37101 ft 480 kts 50°
2026-05-07 10:30 24.29071 -132.62742 37100 ft 480 kts 50°
2026-05-07 10:31 24.33020 -132.56830 37106 ft 480 kts 50°
2026-05-07 10:31 24.36962 -132.50917 37113 ft 480 kts 50°
2026-05-07 10:32 24.40904 -132.45002 37102 ft 480 kts 50°
2026-05-07 10:32 24.44846 -132.39081 37113 ft 480 kts 50°
2026-05-07 10:33 24.48784 -132.33159 37113 ft 480 kts 50°
2026-05-07 10:33 24.52715 -132.27240 37113 ft 480 kts 50°
2026-05-07 10:34 24.56648 -132.21310 37104 ft 480 kts 50°
2026-05-07 10:34 24.60575 -132.15383 37114 ft 479 kts 51°
2026-05-07 10:35 24.64496 -132.09456 37114 ft 479 kts 51°
2026-05-07 10:35 24.68415 -132.03526 37114 ft 479 kts 51°
2026-05-07 10:36 24.72329 -131.97597 37119 ft 479 kts 51°
2026-05-07 10:36 24.76229 -131.91677 37121 ft 477 kts 51°
2026-05-07 10:37 24.80097 -131.85804 37125 ft 477 kts 51°
2026-05-07 10:37 24.83980 -131.79899 37121 ft 476 kts 51°
2026-05-07 10:38 24.87861 -131.73990 37127 ft 476 kts 51°
2026-05-07 10:38 24.91740 -131.68083 37128 ft 476 kts 51°
2026-05-07 10:39 24.95611 -131.62176 37127 ft 475 kts 51°
2026-05-07 10:39 24.99472 -131.56273 37128 ft 475 kts 51°
2026-05-07 10:40 25.03332 -131.50367 37128 ft 474 kts 51°
2026-05-07 10:40 25.07186 -131.44462 37127 ft 474 kts 51°
2026-05-07 10:41 25.11034 -131.38560 37128 ft 474 kts 51°
2026-05-07 10:41 25.14877 -131.32658 37128 ft 473 kts 51°
2026-05-07 10:42 25.18711 -131.26765 37127 ft 473 kts 51°
2026-05-07 10:42 25.22543 -131.20866 37128 ft 472 kts 51°
2026-05-07 10:43 25.26370 -131.14968 37128 ft 472 kts 51°
2026-05-07 10:43 25.30191 -131.09072 37129 ft 472 kts 51°
2026-05-07 10:44 25.34010 -131.03173 37127 ft 472 kts 51°
2026-05-07 10:44 25.37822 -130.97274 37129 ft 471 kts 51°
2026-05-07 10:45 25.41628 -130.91376 37129 ft 471 kts 51°
2026-05-07 10:45 25.45429 -130.85481 37122 ft 470 kts 51°
2026-05-07 10:46 25.49221 -130.79592 37121 ft 470 kts 51°
2026-05-07 10:46 25.52988 -130.73735 37127 ft 470 kts 51°
2026-05-07 10:47 25.56795 -130.67803 37127 ft 469 kts 50°
2026-05-07 10:47 25.60549 -130.61955 37129 ft 469 kts 50°
2026-05-07 10:48 25.64321 -130.56072 37127 ft 468 kts 50°
2026-05-07 10:48 25.68085 -130.50187 37128 ft 468 kts 50°
2026-05-07 10:49 25.71841 -130.44310 37129 ft 467 kts 50°
2026-05-07 10:49 25.75585 -130.38446 37129 ft 466 kts 50°
2026-05-07 10:50 25.79329 -130.32575 37110 ft 466 kts 50°
2026-05-07 10:50 25.83065 -130.26707 37112 ft 465 kts 50°
2026-05-07 10:51 25.86796 -130.20841 37111 ft 465 kts 50°
2026-05-07 10:51 25.90518 -130.14981 37113 ft 464 kts 50°
2026-05-07 10:52 25.94236 -130.09121 37107 ft 464 kts 50°
2026-05-07 10:52 25.97948 -130.03262 37110 ft 463 kts 50°
2026-05-07 10:53 26.01702 -129.97444 37110 ft 461 kts 47°
2026-05-07 10:53 26.05717 -129.91894 37112 ft 461 kts 46°
2026-05-07 10:54 26.09720 -129.86318 37098 ft 461 kts 47°
2026-05-07 10:54 26.13704 -129.80722 37102 ft 461 kts 47°
2026-05-07 10:55 26.17681 -129.75116 37105 ft 461 kts 47°
2026-05-07 10:55 26.21655 -129.69504 37100 ft 461 kts 47°
2026-05-07 10:56 26.25626 -129.63888 37103 ft 462 kts 47°
2026-05-07 10:56 26.28922 -129.59221 37101 ft 461 kts 47°
2026-05-07 10:57 26.32887 -129.53600 37093 ft 461 kts 47°
2026-05-07 10:57 26.36849 -129.47976 37105 ft 461 kts 47°
2026-05-07 10:58 26.40810 -129.42346 37100 ft 461 kts 47°
2026-05-07 10:58 26.44771 -129.36711 37094 ft 461 kts 47°
2026-05-07 10:59 26.48730 -129.31067 37105 ft 462 kts 47°
2026-05-07 10:59 26.52688 -129.25422 37099 ft 462 kts 47°
2026-05-07 11:00 26.56643 -129.19773 37095 ft 462 kts 47°
2026-05-07 11:00 26.60591 -129.14127 37094 ft 461 kts 47°
2026-05-07 11:01 26.64545 -129.08466 37101 ft 461 kts 48°
2026-05-07 11:01 26.68462 -129.02850 37102 ft 462 kts 48°
2026-05-07 11:02 26.72408 -128.97186 37101 ft 462 kts 48°
2026-05-07 11:02 26.76353 -128.91516 37100 ft 462 kts 48°
2026-05-07 11:03 26.80297 -128.85837 37100 ft 462 kts 48°
2026-05-07 11:03 26.84243 -128.80153 37100 ft 462 kts 48°
2026-05-07 11:04 26.88153 -128.74512 37104 ft 462 kts 48°
2026-05-07 11:04 26.92094 -128.68816 37094 ft 462 kts 48°
2026-05-07 11:05 26.96034 -128.63119 37104 ft 462 kts 48°
2026-05-07 11:05 26.99972 -128.57416 37101 ft 462 kts 48°
2026-05-07 11:06 27.03907 -128.51711 37100 ft 462 kts 48°
2026-05-07 11:06 27.07838 -128.46002 37103 ft 462 kts 49°
2026-05-07 11:07 27.11764 -128.40290 37084 ft 462 kts 49°
2026-05-07 11:07 27.15685 -128.34583 37084 ft 462 kts 49°
2026-05-07 11:08 27.19610 -128.28863 37083 ft 462 kts 49°
2026-05-07 11:08 27.23530 -128.23142 37084 ft 462 kts 49°
2026-05-07 11:09 27.27445 -128.17421 37084 ft 462 kts 49°
2026-05-07 11:09 27.31358 -128.11696 37098 ft 462 kts 49°
2026-05-07 11:10 27.35266 -128.05969 37097 ft 461 kts 49°
2026-05-07 11:10 27.39170 -128.00241 37092 ft 461 kts 49°
2026-05-07 11:11 27.43074 -127.94504 37095 ft 462 kts 50°
2026-05-07 11:11 27.46973 -127.88767 37101 ft 462 kts 50°
2026-05-07 11:12 27.50876 -127.83018 37084 ft 462 kts 50°
2026-05-07 11:12 27.54777 -127.77266 37083 ft 462 kts 50°
2026-05-07 11:13 27.58670 -127.71519 37083 ft 461 kts 50°
2026-05-07 11:13 27.62533 -127.65806 37082 ft 461 kts 50°
2026-05-07 11:14 27.66419 -127.60050 37082 ft 461 kts 50°
2026-05-07 11:14 27.70306 -127.54287 37082 ft 461 kts 50°
2026-05-07 11:15 27.74190 -127.48520 37082 ft 461 kts 50°
2026-05-07 11:15 27.78067 -127.42756 37081 ft 461 kts 50°
2026-05-07 11:16 27.81943 -127.36985 37081 ft 461 kts 50°
2026-05-07 11:16 27.85814 -127.31213 37098 ft 461 kts 50°
2026-05-07 11:17 27.89685 -127.25438 37104 ft 461 kts 50°
2026-05-07 11:17 27.93548 -127.19664 37098 ft 461 kts 50°
2026-05-07 11:18 27.97411 -127.13883 37098 ft 460 kts 50°
2026-05-07 11:18 28.01270 -127.08101 37098 ft 460 kts 50°
2026-05-07 11:19 28.05119 -127.02324 37097 ft 459 kts 50°
2026-05-07 11:19 28.08958 -126.96556 37084 ft 458 kts 50°
2026-05-07 11:20 28.12788 -126.90792 37085 ft 458 kts 50°
2026-05-07 11:20 28.16614 -126.85028 37101 ft 457 kts 50°
2026-05-07 11:21 28.20436 -126.79264 37097 ft 457 kts 51°
2026-05-07 11:21 28.24245 -126.73506 37085 ft 457 kts 51°
2026-05-07 11:22 28.28059 -126.67736 37082 ft 457 kts 51°
2026-05-07 11:22 28.31873 -126.61960 37081 ft 457 kts 51°
2026-05-07 11:23 28.35682 -126.56182 37083 ft 457 kts 51°
2026-05-07 11:23 28.39488 -126.50403 37081 ft 456 kts 51°
2026-05-07 11:24 28.43286 -126.44625 37082 ft 456 kts 51°
2026-05-07 11:24 28.47082 -126.38843 37083 ft 456 kts 51°
2026-05-07 11:25 28.50850 -126.33095 37082 ft 456 kts 51°
2026-05-07 11:25 28.54637 -126.27312 37082 ft 456 kts 51°
2026-05-07 11:26 28.58424 -126.21520 37082 ft 456 kts 51°
2026-05-07 11:26 28.62209 -126.15724 37083 ft 456 kts 51°
2026-05-07 11:27 28.65990 -126.09924 37081 ft 456 kts 51°
2026-05-07 11:27 28.69769 -126.04121 37081 ft 456 kts 51°
2026-05-07 11:28 28.73545 -125.98316 37083 ft 456 kts 51°
2026-05-07 11:28 28.77314 -125.92512 37083 ft 455 kts 51°
2026-05-07 11:29 28.81074 -125.86714 37083 ft 454 kts 51°
2026-05-07 11:29 28.84825 -125.80923 37081 ft 454 kts 51°
2026-05-07 11:30 28.88576 -125.75121 37082 ft 454 kts 51°
2026-05-07 11:30 28.92323 -125.69319 37081 ft 454 kts 51°
2026-05-07 11:31 28.96066 -125.63516 37082 ft 454 kts 52°
2026-05-07 11:31 28.99783 -125.57744 37081 ft 454 kts 52°
2026-05-07 11:32 29.05389 -125.49026 37082 ft 453 kts 52°
2026-05-07 11:33 29.09118 -125.43216 37082 ft 453 kts 52°
2026-05-07 11:33 29.12843 -125.37403 37082 ft 453 kts 52°
2026-05-07 11:34 29.16564 -125.31589 37081 ft 453 kts 52°
2026-05-07 11:34 29.20281 -125.25774 37081 ft 453 kts 52°
2026-05-07 11:35 29.23997 -125.19950 37082 ft 453 kts 52°
2026-05-07 11:35 29.27707 -125.14128 37083 ft 453 kts 52°
2026-05-07 11:36 29.31417 -125.08301 37081 ft 452 kts 52°
2026-05-07 11:36 29.35122 -125.02471 37083 ft 452 kts 52°
2026-05-07 11:37 29.38821 -124.96642 37081 ft 452 kts 52°
2026-05-07 11:37 29.42489 -124.90855 37083 ft 451 kts 52°
2026-05-07 11:38 29.46173 -124.85034 37083 ft 450 kts 52°
2026-05-07 11:38 29.49849 -124.79217 37081 ft 450 kts 52°
2026-05-07 11:39 29.53518 -124.73402 37083 ft 449 kts 52°
2026-05-07 11:39 29.57176 -124.67596 37081 ft 449 kts 52°
2026-05-07 11:40 29.60835 -124.61782 37083 ft 449 kts 53°
2026-05-07 11:40 29.64487 -124.55970 37082 ft 448 kts 53°
2026-05-07 11:41 29.68134 -124.50157 37081 ft 448 kts 53°
2026-05-07 11:41 29.71778 -124.44343 37082 ft 448 kts 53°
2026-05-07 11:42 29.75414 -124.38532 37098 ft 447 kts 53°
2026-05-07 11:42 29.79040 -124.32728 37081 ft 446 kts 53°
2026-05-07 11:43 29.82660 -124.26928 37082 ft 446 kts 53°
2026-05-07 11:43 29.86271 -124.21133 37082 ft 446 kts 53°
2026-05-07 11:44 29.89877 -124.15335 37082 ft 445 kts 53°
2026-05-07 11:44 29.93453 -124.09579 37083 ft 444 kts 53°
2026-05-07 11:45 29.97050 -124.03782 37081 ft 444 kts 53°
2026-05-07 11:45 30.00643 -123.97982 37081 ft 444 kts 53°
2026-05-07 11:46 30.04233 -123.92177 37082 ft 444 kts 53°
2026-05-07 11:46 30.07235 -123.87320 37081 ft 444 kts 53°
2026-05-07 11:47 30.10796 -123.81549 37082 ft 444 kts 53°
2026-05-07 11:47 30.14378 -123.75734 37081 ft 444 kts 53°
2026-05-07 11:48 30.17959 -123.69914 37101 ft 444 kts 53°
2026-05-07 11:48 30.21535 -123.64093 37100 ft 444 kts 53°
2026-05-07 11:49 30.25109 -123.58267 37097 ft 444 kts 53°
2026-05-07 11:49 30.28679 -123.52438 37092 ft 444 kts 53°
2026-05-07 11:50 30.32244 -123.46611 37098 ft 444 kts 53°
2026-05-07 11:50 30.35810 -123.40771 37096 ft 444 kts 53°
2026-05-07 11:51 30.39379 -123.34920 37085 ft 445 kts 53°
2026-05-07 11:51 30.42947 -123.29064 37085 ft 445 kts 53°
2026-05-07 11:52 30.46487 -123.23240 37097 ft 445 kts 53°
2026-05-07 11:52 30.50047 -123.17376 37084 ft 445 kts 53°
2026-05-07 11:53 30.53608 -123.11504 37082 ft 445 kts 53°
2026-05-07 11:53 30.57162 -123.05633 37082 ft 445 kts 54°
2026-05-07 11:54 30.60712 -122.99762 37082 ft 445 kts 54°
2026-05-07 11:54 30.64262 -122.93881 37082 ft 445 kts 54°
2026-05-07 11:55 30.67809 -122.87997 37082 ft 444 kts 54°
2026-05-07 11:55 30.71350 -122.82113 37082 ft 444 kts 54°
2026-05-07 11:56 30.74885 -122.76232 37084 ft 444 kts 54°
2026-05-07 11:56 30.78414 -122.70348 37084 ft 444 kts 54°
2026-05-07 11:57 30.81942 -122.64461 37084 ft 444 kts 54°
2026-05-07 11:57 30.85465 -122.58573 37100 ft 443 kts 54°
2026-05-07 11:58 30.88984 -122.52684 37081 ft 444 kts 54°
2026-05-07 11:58 30.92503 -122.46784 37096 ft 443 kts 54°
2026-05-07 11:59 30.96017 -122.40883 37102 ft 443 kts 54°
2026-05-07 11:59 30.99530 -122.34977 37085 ft 443 kts 54°
2026-05-07 12:00 31.03007 -122.29120 37082 ft 443 kts 54°
2026-05-07 12:00 31.06515 -122.23206 37083 ft 443 kts 54°
2026-05-07 12:01 31.09996 -122.17326 37084 ft 443 kts 54°
2026-05-07 12:01 31.13495 -122.11407 37095 ft 443 kts 54°
2026-05-07 12:02 31.16992 -122.05483 37101 ft 443 kts 54°
2026-05-07 12:02 31.20483 -121.99558 37101 ft 443 kts 54°
2026-05-07 12:03 31.23975 -121.93626 37098 ft 443 kts 54°
2026-05-07 12:03 31.27461 -121.87694 37096 ft 442 kts 54°
2026-05-07 12:04 31.30939 -121.81762 37099 ft 442 kts 54°
2026-05-07 12:04 31.34386 -121.75882 37102 ft 442 kts 54°
2026-05-07 12:05 31.37868 -121.69929 37150 ft 445 kts 54°
2026-05-07 12:05 31.41391 -121.63901 37310 ft 452 kts 54°
2026-05-07 12:06 31.44967 -121.57767 37483 ft 459 kts 54°
2026-05-07 12:06 31.48586 -121.51553 37674 ft 464 kts 54°
2026-05-07 12:06 31.50378 -121.48472 37841 ft 464 kts 54°
2026-05-07 12:07 31.52193 -121.45346 38032 ft 464 kts 54°
2026-05-07 12:07 31.54011 -121.42214 38205 ft 464 kts 54°
2026-05-07 12:07 31.55703 -121.38986 38370 ft 466 kts 61°
2026-05-07 12:07 31.57054 -121.35524 38546 ft 467 kts 65°
2026-05-07 12:08 31.58288 -121.31996 38716 ft 467 kts 66°
2026-05-07 12:08 31.59504 -121.28470 38899 ft 467 kts 66°
2026-05-07 12:08 31.60721 -121.24940 39083 ft 466 kts 66°
2026-05-07 12:08 31.61940 -121.21413 39218 ft 467 kts 66°
2026-05-07 12:09 31.63163 -121.17872 39301 ft 469 kts 66°
2026-05-07 12:09 31.64388 -121.14329 39440 ft 468 kts 66°
2026-05-07 12:09 31.65611 -121.10785 39566 ft 469 kts 66°
2026-05-07 12:10 31.68060 -121.03677 39770 ft 470 kts 66°
2026-05-07 12:10 31.69285 -121.00118 39898 ft 470 kts 66°
2026-05-07 12:10 31.70511 -120.96551 39998 ft 471 kts 66°
2026-05-07 12:11 31.72967 -120.89400 40188 ft 472 kts 66°
2026-05-07 12:11 31.75420 -120.82238 40371 ft 473 kts 66°
2026-05-07 12:12 31.77876 -120.75051 40551 ft 474 kts 66°
2026-05-07 12:12 31.80331 -120.67854 40709 ft 475 kts 66°
2026-05-07 12:13 31.82790 -120.60629 40887 ft 476 kts 66°
2026-05-07 12:13 31.85248 -120.53389 41009 ft 477 kts 66°
2026-05-07 12:14 31.87656 -120.46285 41079 ft 478 kts 66°
2026-05-07 12:14 31.89923 -120.39580 41084 ft 478 kts 66°
2026-05-07 12:15 31.92374 -120.32313 41078 ft 478 kts 66°
2026-05-07 12:15 31.95250 -120.25325 41082 ft 472 kts 49°
2026-05-07 12:16 31.99709 -120.19709 41082 ft 470 kts 44°
2026-05-07 12:16 32.04240 -120.14148 41080 ft 471 kts 44°
2026-05-07 12:17 32.08728 -120.08529 41085 ft 471 kts 45°
2026-05-07 12:17 32.13199 -120.02888 41084 ft 471 kts 45°
2026-05-07 12:18 32.17666 -119.97232 41083 ft 471 kts 45°
2026-05-07 12:18 32.19891 -119.94411 40929 ft 467 kts 45°
2026-05-07 12:18 32.22098 -119.91609 40285 ft 466 kts 45°
2026-05-07 12:18 32.24305 -119.88806 39618 ft 464 kts 45°
2026-05-07 12:19 32.26483 -119.86036 38684 ft 457 kts 45°
2026-05-07 12:19 32.28638 -119.83294 37600 ft 454 kts 45°
2026-05-07 12:19 32.30783 -119.80562 36395 ft 453 kts 45°
2026-05-07 12:19 32.32925 -119.77833 35389 ft 448 kts 45°
2026-05-07 12:20 32.35027 -119.75151 34934 ft 442 kts 45°
2026-05-07 12:20 32.37106 -119.72499 34483 ft 438 kts 45°
2026-05-07 12:20 32.39163 -119.69871 34020 ft 433 kts 45°
2026-05-07 12:20 32.41206 -119.67261 33577 ft 429 kts 45°
2026-05-07 12:21 32.43219 -119.64687 33134 ft 425 kts 45°
2026-05-07 12:21 32.45216 -119.62129 32684 ft 421 kts 45°
2026-05-07 12:21 32.47193 -119.59598 32242 ft 417 kts 45°
2026-05-07 12:21 32.49130 -119.57125 31809 ft 414 kts 45°
2026-05-07 12:22 32.51074 -119.54630 31371 ft 410 kts 45°
2026-05-07 12:22 32.53000 -119.52156 30933 ft 406 kts 45°
2026-05-07 12:22 32.54905 -119.49708 30507 ft 403 kts 45°
2026-05-07 12:22 32.56793 -119.47279 30085 ft 399 kts 45°
2026-05-07 12:23 32.58690 -119.44838 29665 ft 395 kts 45°
2026-05-07 12:23 32.60543 -119.42453 29251 ft 391 kts 45°
2026-05-07 12:23 32.62350 -119.40125 28851 ft 387 kts 45°
2026-05-07 12:23 32.64166 -119.37785 28452 ft 384 kts 45°
2026-05-07 12:24 32.65967 -119.35464 28042 ft 380 kts 45°
2026-05-07 12:24 32.67752 -119.33163 27653 ft 377 kts 45°
2026-05-07 12:24 32.69520 -119.30882 27247 ft 374 kts 45°
2026-05-07 12:24 32.71272 -119.28618 26848 ft 371 kts 45°
2026-05-07 12:25 32.73011 -119.26371 26452 ft 368 kts 45°
2026-05-07 12:25 32.74733 -119.24143 26051 ft 364 kts 45°
2026-05-07 12:25 32.76437 -119.21937 25671 ft 361 kts 45°
2026-05-07 12:25 32.78129 -119.19746 25294 ft 358 kts 45°
2026-05-07 12:26 32.79803 -119.17576 24905 ft 354 kts 45°
2026-05-07 12:26 32.81461 -119.15427 24533 ft 352 kts 45°
2026-05-07 12:26 32.83115 -119.13282 24155 ft 351 kts 45°
2026-05-07 12:26 32.84760 -119.11148 23776 ft 349 kts 45°
2026-05-07 12:27 32.86397 -119.09022 23406 ft 347 kts 45°
2026-05-07 12:27 32.88017 -119.06914 23034 ft 345 kts 45°
2026-05-07 12:27 32.89633 -119.04812 22670 ft 342 kts 45°
2026-05-07 12:27 32.91236 -119.02727 22300 ft 341 kts 45°
2026-05-07 12:28 32.92829 -119.00654 21937 ft 339 kts 45°
2026-05-07 12:28 32.94414 -118.98589 21578 ft 337 kts 46°
2026-05-07 12:28 32.95990 -118.96536 21220 ft 335 kts 45°
2026-05-07 12:28 32.97554 -118.94497 20871 ft 333 kts 46°
2026-05-07 12:29 32.99106 -118.92470 20521 ft 330 kts 46°
2026-05-07 12:29 33.00650 -118.90456 20169 ft 328 kts 46°
2026-05-07 12:29 33.02182 -118.88454 19822 ft 326 kts 46°
2026-05-07 12:29 33.03705 -118.86463 19476 ft 324 kts 46°
2026-05-07 12:30 33.05219 -118.84484 19131 ft 322 kts 46°
2026-05-07 12:30 33.06723 -118.82517 18790 ft 321 kts 46°
2026-05-07 12:30 33.08222 -118.80555 18449 ft 319 kts 46°
2026-05-07 12:30 33.09711 -118.78606 18108 ft 317 kts 46°
2026-05-07 12:31 33.11193 -118.76663 17766 ft 315 kts 46°
2026-05-07 12:31 33.12667 -118.74729 17400 ft 314 kts 46°
2026-05-07 12:31 33.14129 -118.72807 17020 ft 312 kts 46°
2026-05-07 12:31 33.15585 -118.70898 16685 ft 310 kts 46°
2026-05-07 12:32 33.17032 -118.68999 16347 ft 308 kts 47°
2026-05-07 12:32 33.18453 -118.67133 16019 ft 307 kts 47°
2026-05-07 12:32 33.19889 -118.65206 15913 ft 318 kts 49°
2026-05-07 12:32 33.21338 -118.63156 15860 ft 327 kts 49°
2026-05-07 12:33 33.24268 -118.59004 15691 ft 327 kts 49°
2026-05-07 12:33 33.25737 -118.56929 15595 ft 326 kts 49°
2026-05-07 12:33 33.27204 -118.54863 15511 ft 326 kts 49°
2026-05-07 12:34 33.28670 -118.52798 15431 ft 326 kts 49°
2026-05-07 12:34 33.30133 -118.50737 15344 ft 325 kts 49°
2026-05-07 12:34 33.31594 -118.48680 15248 ft 325 kts 49°
2026-05-07 12:34 33.32995 -118.46561 15161 ft 325 kts 56°
2026-05-07 12:35 33.33913 -118.44103 15080 ft 326 kts 75°
2026-05-07 12:35 33.34107 -118.41396 14995 ft 328 kts 90°
2026-05-07 12:35 33.33972 -118.38667 14903 ft 329 kts 92°
2026-05-07 12:35 33.33801 -118.35945 14825 ft 328 kts 92°
2026-05-07 12:36 33.33635 -118.33226 14740 ft 328 kts 92°
2026-05-07 12:36 33.33473 -118.30508 14653 ft 327 kts 91°
2026-05-07 12:36 33.33316 -118.27798 14563 ft 327 kts 91°
2026-05-07 12:36 33.33213 -118.26005 14504 ft 326 kts 91°
2026-05-07 12:37 33.33059 -118.23298 14424 ft 326 kts 91°
2026-05-07 12:37 33.32904 -118.20596 14338 ft 325 kts 91°
2026-05-07 12:37 33.32750 -118.17901 14253 ft 325 kts 91°
2026-05-07 12:37 33.32596 -118.15214 14168 ft 324 kts 91°
2026-05-07 12:38 33.32491 -118.12527 14074 ft 323 kts 86°
2026-05-07 12:38 33.32891 -118.09915 14012 ft 319 kts 68°
2026-05-07 12:38 33.34010 -118.07652 13621 ft 316 kts 49°
2026-05-07 12:38 33.35501 -118.05736 13220 ft 314 kts 46°
2026-05-07 12:39 33.37030 -118.03883 12821 ft 313 kts 46°
2026-05-07 12:39 33.38560 -118.02039 12436 ft 311 kts 45°
2026-05-07 12:39 33.40290 -118.00510 12039 ft 311 kts 28°
2026-05-07 12:39 33.42364 -117.99800 11673 ft 313 kts
2026-05-07 12:40 33.44546 -117.99786 11300 ft 315 kts
2026-05-07 12:40 33.46734 -117.99909 10913 ft 314 kts 359°
2026-05-07 12:40 33.48914 -118.00036 10552 ft 314 kts 359°
2026-05-07 12:40 33.51090 -118.00154 10268 ft 308 kts 359°
2026-05-07 12:41 33.53196 -118.00263 10026 ft 299 kts 359°
2026-05-07 12:41 33.55263 -118.00367 9632 ft 296 kts 358°
2026-05-07 12:41 33.57313 -118.00468 9210 ft 294 kts 358°
2026-05-07 12:41 33.59329 -118.00569 8883 ft 288 kts 358°
2026-05-07 12:42 33.61328 -118.00661 8508 ft 286 kts 358°
2026-05-07 12:42 33.63316 -118.00747 8186 ft 286 kts 358°
2026-05-07 12:42 33.65283 -118.01015 7903 ft 283 kts 347°
2026-05-07 12:42 33.67189 -118.01612 7769 ft 283 kts 344°
2026-05-07 12:43 33.69080 -118.02266 7652 ft 282 kts 343°
2026-05-07 12:43 33.70959 -118.02921 7499 ft 281 kts 343°
2026-05-07 12:43 33.72798 -118.03562 7375 ft 270 kts 343°
2026-05-07 12:43 33.74562 -118.04172 7231 ft 258 kts 343°
2026-05-07 12:44 33.76250 -118.04753 7093 ft 247 kts 343°
2026-05-07 12:44 33.77864 -118.05319 6951 ft 237 kts 342°
2026-05-07 12:44 33.79397 -118.05981 6748 ft 233 kts 338°
2026-05-07 12:44 33.80881 -118.06686 6470 ft 232 kts 338°
2026-05-07 12:45 33.82374 -118.07406 6206 ft 230 kts 338°
2026-05-07 12:45 33.83858 -118.08120 5935 ft 229 kts 338°
2026-05-07 12:45 33.85335 -118.08830 5669 ft 228 kts 338°
2026-05-07 12:45 33.86787 -118.09529 5491 ft 220 kts 338°
2026-05-07 12:46 33.88175 -118.10207 5342 ft 211 kts 336°
2026-05-07 12:46 33.89373 -118.11106 5222 ft 198 kts 317°
2026-05-07 12:46 33.90256 -118.12317 5045 ft 189 kts 308°
2026-05-07 12:46 33.91048 -118.13572 4839 ft 187 kts 307°
2026-05-07 12:47 33.91829 -118.14828 4569 ft 187 kts 307°
2026-05-07 12:47 33.92611 -118.16080 4295 ft 187 kts 307°
2026-05-07 12:47 33.93391 -118.17324 4032 ft 186 kts 307°
2026-05-07 12:47 33.94171 -118.18567 3794 ft 186 kts 308°
2026-05-07 12:48 33.94949 -118.19804 3541 ft 185 kts 308°
2026-05-07 12:48 33.95721 -118.21042 3298 ft 186 kts 307°
2026-05-07 12:48 33.96374 -118.22381 3047 ft 185 kts 294°
2026-05-07 12:48 33.96722 -118.23867 2800 ft 185 kts 278°
2026-05-07 12:49 33.96733 -118.25411 2562 ft 185 kts 265°
2026-05-07 12:49 33.96589 -118.26943 2320 ft 184 kts 263°
2026-05-07 12:49 33.96429 -118.28445 2085 ft 178 kts 263°
2026-05-07 12:49 33.96274 -118.29881 1834 ft 167 kts 262°
2026-05-07 12:50 33.96129 -118.31242 1638 ft 162 kts 263°
2026-05-07 12:50 33.95993 -118.32555 1416 ft 154 kts 263°
2026-05-07 12:50 33.95866 -118.33796 1215 ft 146 kts 263°
2026-05-07 12:50 33.95742 -118.34998 1030 ft 145 kts 263°
2026-05-07 12:51 33.95618 -118.36203 836 ft 145 kts 263°
2026-05-07 12:51 33.95496 -118.37406 649 ft 144 kts 263°
2026-05-07 12:51 33.95370 -118.38601 445 ft 144 kts 262°
2026-05-07 12:51 33.95253 -118.39794 227 ft 144 kts 263°
2026-05-07 12:52 33.95133 -118.40978 102 ft 136 kts 263°
2026-05-07 12:52 33.95041 -118.41856 100 ft 75 kts 263°
2026-05-07 12:52 33.94989 -118.42266 103 ft 37 kts 249°
2026-05-07 12:52 33.94887 -118.42441 104 ft 13 kts 220°
2026-05-07 12:53 33.94838 -118.42482 104 ft 7 kts 206°
2026-05-07 12:53 33.94796 -118.42488 106 ft 6 kts 182°
2026-05-07 12:53 33.94744 -118.42486 106 ft 9 kts 175°
2026-05-07 12:53 33.94659 -118.42474 104 ft 15 kts 168°
2026-05-07 12:54 33.94647 -118.42450 100 ft 2 kts 76°
2026-05-07 12:54 33.94654 -118.42430 100 ft 4 kts 68°
2026-05-07 12:54 33.94666 -118.42387 100 ft 7 kts 76°
2026-05-07 12:54 33.94674 -118.42316 104 ft 10 kts 82°
2026-05-07 12:55 33.94684 -118.42220 103 ft 13 kts 82°
2026-05-07 12:55 33.94696 -118.42102 101 ft 15 kts 83°
2026-05-07 12:55 33.94709 -118.41966 100 ft 17 kts 81°
2026-05-07 12:55 33.94723 -118.41829 101 ft 16 kts 83°
2026-05-07 12:56 33.94736 -118.41707 99 ft 14 kts 82°
2026-05-07 12:56 33.94748 -118.41602 100 ft 11 kts 83°
2026-05-07 12:56 33.94755 -118.41515 102 ft 9 kts 84°
2026-05-07 12:56 33.94763 -118.41440 101 ft 9 kts 80°
2026-05-07 12:57 33.94780 -118.41364 103 ft 10 kts 76°
2026-05-07 12:57 33.94792 -118.41278 100 ft 11 kts 82°
2026-05-07 12:57 33.94802 -118.41189 104 ft 10 kts 83°
2026-05-07 12:57 33.94810 -118.41107 101 ft 10 kts 83°
2026-05-07 12:58 33.94818 -118.41030 105 ft 9 kts 83°
2026-05-07 12:58 33.94826 -118.40954 104 ft 9 kts 84°
2026-05-07 12:58 33.94802 -118.40892 103 ft 8 kts 149°
2026-05-07 12:58 33.94747 -118.40901 101 ft 8 kts 195°
2026-05-07 12:59 33.94699 -118.40907 103 ft 7 kts 178°
2026-05-07 12:59 33.94656 -118.40903 101 ft 6 kts 175°
2026-05-07 12:59 33.94616 -118.40898 103 ft 5 kts 175°
2026-05-07 12:59 33.94581 -118.40893 102 ft 5 kts 173°
2026-05-07 13:00 33.94555 -118.40897 100 ft 2 kts 211°
2026-05-07 13:00 33.94550 -118.40911 100 ft 2 kts 251°
2026-05-07 13:00 33.94546 -118.40954 99 ft 7 kts 264°
2026-05-07 13:00 33.94542 -118.40992 102 ft 2 kts 262°
2026-05-07 13:01 33.94542 -118.40994 100 ft 0 kts 262°
2026-05-07 13:01 33.94542 -118.40996 101 ft 0 kts 262°
2026-05-07 13:03 33.94540 -118.41009 99 ft 0 kts 263°